GEFSNGP_500_meanwind_114.txt.gz
Wind_Speed
28 27 25 23 23 24 24 21 19 18 17 17 17 16 16 16 16 16 15 14 14 15 15 14 14 14 14 13 13 13 13 14 14 15 16 16 17 17 17 18 19 19 19 20
30 29 28 27 26 25 25 24 23 21 20 20 19 18 18 17 17 16 15 15 15 16 16 17 17 16 16 15 15 14 15 15 16 16 17 17 18 19 19 20 21 21 21 21
30 30 30 29 28 27 26 25 24 22 22 22 21 21 20 20 19 18 17 17 17 18 19 19 19 19 18 17 16 16 16 17 17 17 18 18 20 21 21 21 21 22 22 22
31 32 32 29 30 28 27 26 26 26 26 25 24 23 23 22 22 21 20 20 21 21 21 21 21 21 20 20 19 19 19 19 19 20 20 20 21 22 22 22 22 23 22 22
35 34 33 33 32 29 29 28 27 27 27 26 25 25 24 23 23 22 23 23 23 23 23 23 23 23 22 22 21 21 21 20 19 20 20 21 22 21 22 23 23 23 23 23
38 36 33 33 33 30 30 30 28 28 28 27 25 26 26 24 24 24 24 24 24 24 24 24 24 24 24 24 23 22 21 21 20 20 20 21 21 22 24 24 24 24 25 25
38 37 35 37 34 30 31 31 29 28 28 28 28 28 27 26 26 25 25 25 25 25 25 25 25 25 25 24 24 23 23 22 22 21 21 22 22 23 23 24 24 25 25 25
38 37 36 38 35 34 32 31 30 29 30 30 29 29 28 27 27 26 26 26 26 26 25 26 25 26 26 26 25 25 24 24 24 24 23 23 24 24 25 26 27 27 26 27
38 38 38 37 36 35 33 33 32 32 31 31 31 31 30 29 28 28 27 27 27 27 26 26 26 27 27 26 26 26 25 25 25 25 25 25 25 26 26 27 27 27 27 28
37 37 37 36 35 34 34 33 33 33 32 32 32 32 32 31 30 29 29 29 29 28 27 27 27 27 27 27 27 27 26 26 26 27 26 26 26 26 27 27 27 28 28 28
35 36 35 35 35 34 34 33 33 33 33 32 32 32 31 31 30 30 30 30 29 29 28 28 28 27 27 27 27 27 27 26 27 26 26 26 26 26 27 28 28 28 28 29
33 34 33 34 33 33 32 32 32 32 33 33 33 32 31 30 31 31 30 30 29 29 28 27 27 27 27 27 26 26 26 26 26 26 25 26 27 27 28 28 28 29 29 29
33 33 33 32 32 32 32 32 32 32 32 32 32 32 31 30 30 30 30 30 29 28 28 27 27 27 27 27 27 27 26 26 27 26 26 26 27 27 27 27 28 27 28 29
32 32 32 32 31 31 31 31 31 31 31 31 31 31 30 29 29 30 29 29 28 27 27 27 26 26 26 26 27 27 26 26 27 27 26 25 25 26 26 26 26 27 28 29
31 31 31 30 30 29 29 29 29 30 30 29 29 29 29 29 29 29 29 29 28 28 27 27 27 26 26 26 26 26 25 25 25 25 25 25 25 25 24 25 26 26 27 27
30 30 29 29 28 28 27 28 28 28 28 28 28 28 28 28 28 28 27 27 27 27 27 27 27 27 27 26 25 24 24 23 23 23 24 24 23 23 24 24 24 24 25 26
27 28 28 27 26 26 26 26 26 26 26 26 25 25 25 25 25 24 24 24 24 24 24 24 24 24 24 24 23 22 21 21 21 21 21 21 21 21 22 22 22 23 23 23
25 26 26 26 26 25 24 24 24 24 23 23 23 23 23 23 22 22 22 22 22 22 22 21 21 20 19 19 19 18 19 20 20 21 21 20 19 20 21 21 22 22 22 22
24 24 24 24 24 24 23 23 22 21 20 21 21 20 20 19 19 19 19 19 19 18 18 17 17 16 16 16 16 16 17 17 18 18 19 19 19 20 20 20 21 21 22 23
22 22 22 22 22 22 20 19 19 18 17 16 16 17 17 17 17 17 17 16 15 15 15 15 14 14 13 13 14 15 15 15 16 16 17 17 18 19 20 20 21 22 23 25
20 20 20 19 19 19 18 17 17 16 15 15 14 14 14 14 14 14 14 14 13 13 12 12 12 12 12 12 13 13 13 14 15 17 18 18 19 20 20 21 22 23 24 24
18 17 17 17 17 16 15 15 15 15 14 13 13 13 13 12 11 12 12 11 11 11 11 11 11 11 11 12 13 14 14 15 16 17 18 18 19 19 21 22 22 23 23 23
17 16 16 16 16 15 15 14 13 13 12 12 12 12 11 11 10 10 9 10 10 10 10 10 11 11 12 13 13 14 15 16 17 17 18 19 20 21 22 22 23 23 23 24
15 14 14 13 13 13 13 13 13 12 12 11 11 11 10 10 10 9 9 10 10 11 11 12 11 12 12 13 15 15 16 18 19 19 20 21 21 22 22 23 23 24 24 24
13 13 12 12 12 12 12 12 12 12 11 11 10 10 10 10 10 10 10 10 11 11 12 12 13 14 15 16 17 18 19 20 20 21 21 22 22 23 23 24 24 25 25 25
12 12 11 11 11 12 12 11 11 10 10 9 9 9 9 9 9 9 10 11 11 12 13 15 16 17 18 19 19 20 21 21 22 23 23 24 24 24 25 25 25 25 25 25
10 10 10 10 11 11 11 10 10 9 9 9 9 9 9 9 10 11 12 13 14 16 17 18 19 19 20 21 21 22 23 24 25 25 25 25 25 26 26 26 26 26 26 25

GEFSNGP_500_meanwind_120.txt.gz
Wind_Speed
28 25 22 18 19 19 20 21 21 20 20 23 24 23 23 22 21 21 20 20 19 18 17 17 17 15 15 15 14 14 14 15 14 15 15 15 15 15 15 15 16 16 18 19
31 29 27 23 21 19 20 20 21 22 23 24 26 25 24 23 24 23 22 22 21 20 19 19 19 18 17 17 17 17 16 16 16 16 16 16 16 17 17 16 17 17 18 19
33 28 28 28 25 24 22 21 21 21 24 27 27 28 28 27 25 24 24 24 23 23 22 20 20 20 19 19 19 18 18 17 17 16 17 18 18 18 19 19 19 19 19 20
34 31 31 29 26 26 26 25 24 26 28 29 32 31 27 25 26 26 26 25 25 24 23 22 21 21 21 21 20 20 20 20 19 19 19 19 19 20 20 20 21 21 21 21
35 33 32 28 27 27 27 27 28 28 31 31 33 33 31 29 28 28 27 26 26 26 25 24 23 22 22 22 22 22 22 22 22 21 21 20 20 20 21 21 22 22 22 22
37 34 30 26 26 27 29 30 32 32 33 34 33 34 33 29 28 28 28 28 27 26 26 25 25 24 24 24 24 24 24 23 23 22 22 21 21 21 21 22 23 23 23 23
39 37 33 31 31 31 32 33 33 33 35 35 34 34 32 31 30 29 28 28 27 27 27 26 26 26 25 25 25 25 24 24 24 23 23 23 23 22 22 22 22 22 22 23
39 38 35 35 36 37 37 36 34 34 35 34 34 34 33 32 32 31 30 29 29 29 28 28 27 27 27 26 26 26 26 26 26 25 24 24 23 22 22 22 22 23 23 24
35 36 39 40 40 41 40 39 37 36 35 35 35 35 34 34 33 32 32 31 31 30 30 29 29 29 29 29 28 28 27 27 27 26 25 24 24 24 24 24 24 24 24 25
35 38 40 41 41 43 42 40 39 37 37 36 36 35 35 34 35 35 35 34 33 32 32 32 31 31 30 30 30 29 29 28 27 26 26 26 26 26 25 25 25 25 25 26
38 39 40 40 40 41 41 41 40 39 38 38 38 37 37 36 36 36 36 35 35 34 34 34 33 33 32 31 31 30 30 29 28 27 27 27 27 27 27 26 26 26 26 27
41 41 42 40 38 38 40 41 40 40 39 38 38 38 38 38 38 38 37 37 36 35 35 35 34 33 33 32 31 31 31 30 29 29 28 28 28 28 27 27 26 27 27 27
42 42 41 41 40 40 40 40 39 39 39 38 38 39 38 38 38 38 37 37 37 36 35 35 34 34 33 32 32 31 31 30 29 28 28 28 28 28 27 27 28 27 27 27
40 39 39 39 39 39 38 38 38 38 38 38 38 38 38 38 37 38 38 37 37 36 35 35 34 33 33 32 32 32 31 30 29 29 28 28 28 28 28 27 27 27 26 26
40 39 38 37 37 37 38 38 38 37 37 38 37 37 37 37 37 38 38 38 37 36 35 35 34 34 33 32 32 31 30 29 28 28 28 28 28 28 28 27 26 26 26 27
36 35 35 35 36 36 35 35 35 35 36 36 35 36 35 35 35 36 36 36 35 35 34 34 34 33 32 31 31 30 29 28 27 27 27 27 27 27 26 26 26 26 26 26
33 33 32 32 33 34 34 34 34 33 33 33 34 34 33 33 33 33 33 32 33 32 31 31 30 30 30 30 29 28 27 27 26 26 26 26 25 25 25 24 25 25 25 25
33 32 32 31 31 31 31 31 32 31 31 31 31 32 31 31 31 31 30 30 30 30 29 28 27 27 27 27 27 26 25 25 25 25 24 24 23 23 24 24 24 24 24 25
32 31 31 31 29 28 28 29 30 30 30 30 29 29 29 28 28 27 27 27 27 27 26 25 25 24 24 24 24 23 23 22 21 21 21 21 22 22 22 23 23 24 24 25
29 28 28 27 27 27 27 27 27 27 27 26 26 26 26 25 24 24 23 23 23 22 21 21 21 21 21 22 21 20 18 17 17 17 18 19 21 21 22 22 24 24 24 25
27 26 25 25 25 25 24 24 24 25 24 24 23 22 22 21 21 20 20 19 19 19 18 18 17 17 17 17 16 16 16 16 16 17 18 18 19 20 21 22 22 23 23 24
23 23 22 23 22 22 21 21 21 21 20 20 20 19 18 18 18 17 17 16 15 15 14 14 14 13 13 13 13 14 14 15 16 17 18 18 19 20 21 21 21 22 22 23
20 20 20 20 20 19 19 19 18 18 18 17 17 16 15 15 15 15 15 14 14 13 12 12 12 12 12 12 12 13 13 14 15 16 18 19 20 20 21 21 21 22 23 24
16 17 18 17 17 17 16 15 15 15 15 15 15 15 14 14 13 13 12 12 12 11 11 11 11 12 13 13 14 14 15 16 17 18 19 20 20 21 21 22 23 24 25 26
12 13 13 13 14 14 14 13 13 13 13 13 13 13 13 12 12 11 10 10 10 10 10 11 12 12 14 15 16 17 18 19 19 19 20 21 22 23 24 25 26 26 27 27
10 10 11 10 10 10 10 11 11 11 11 11 10 10 9 10 9 9 10 11 11 12 13 13 14 16 16 17 18 18 19 20 21 22 23 23 24 25 26 27 27 28 28 28
8 9 9 8 8 8 8 8 8 8 8 8 8 8 8 8 9 9 10 11 12 13 14 14 15 16 17 18 19 20 21 22 23 24 25 25 26 27 28 28 29 29 29 30

GEFSNGP_500_meanwind_126.txt.gz
Wind_Speed
29 29 29 29 28 25 24 23 22 21 21 21 21 21 21 22 22 19 18 18 16 15 14 14 13 13 12 11 11 10 10 10 10 10 10 10 11 12 13 13 14 15 16 16
32 31 31 31 30 29 27 24 23 22 22 22 24 24 24 25 24 22 21 21 18 16 16 16 15 14 14 13 13 12 12 12 11 11 11 12 12 13 14 14 15 15 16 17
36 34 33 34 31 30 29 27 26 25 23 23 26 27 27 26 25 25 24 23 22 18 17 16 16 15 15 14 14 14 14 14 13 13 13 13 14 14 14 15 16 17 17 17
40 37 39 33 32 33 33 31 30 29 27 26 26 27 27 27 27 26 25 24 22 20 19 17 17 17 16 15 15 15 15 15 15 15 15 15 16 15 15 16 18 19 19 19
44 42 39 34 32 34 36 36 34 32 31 30 29 29 28 28 28 28 26 25 23 22 21 19 19 18 18 17 17 16 16 16 16 16 17 17 17 16 17 17 18 19 19 20
45 43 40 34 33 34 36 38 37 36 34 33 32 31 30 29 29 28 28 27 26 24 22 21 21 21 20 19 18 18 18 17 17 17 18 18 19 18 18 18 19 19 20 21
46 44 41 36 34 34 37 38 37 36 36 35 34 33 32 31 30 30 29 28 27 26 24 22 22 22 21 21 20 20 19 19 19 19 19 19 19 19 19 20 20 20 21 21
45 44 41 37 36 37 38 37 37 36 36 35 34 34 33 33 32 31 29 29 28 27 25 24 24 24 24 23 22 22 22 21 22 21 21 21 21 21 20 21 21 21 21 21
44 43 40 37 37 38 38 39 38 37 37 37 36 36 35 34 33 32 31 31 31 29 28 28 27 26 25 25 25 25 24 24 24 23 23 23 22 22 22 23 23 22 23 23
42 42 40 37 36 37 39 39 39 38 38 38 38 38 37 37 36 35 34 33 33 32 32 31 30 29 28 27 27 27 27 26 25 25 24 24 23 23 24 24 24 23 23 23
42 40 39 37 36 36 37 38 39 39 40 40 39 39 38 38 38 37 36 36 35 34 33 33 31 30 30 29 29 30 29 28 27 27 26 26 25 25 25 25 25 25 25 25
41 40 39 37 36 36 36 37 38 38 39 39 39 39 38 38 38 39 38 37 35 34 34 33 33 32 32 31 32 31 31 30 29 28 28 27 27 27 27 27 27 26 26 26
41 40 38 37 36 36 36 36 37 38 36 36 35 36 37 37 37 37 37 36 35 35 35 35 34 34 34 34 33 33 32 31 30 30 29 29 28 28 28 28 28 28 27 26
41 40 39 38 38 38 37 36 35 35 34 35 36 37 38 38 38 37 36 36 35 35 35 35 35 35 35 34 34 33 33 32 31 31 31 30 30 29 29 28 27 27 26 26
41 41 40 40 39 37 36 35 35 35 34 35 36 36 37 37 37 37 37 37 36 36 37 36 36 35 35 34 34 34 33 32 31 31 31 31 31 30 29 28 28 27 26 26
41 39 39 39 39 37 35 34 35 35 35 36 37 37 37 37 37 37 37 37 36 36 36 36 35 35 35 34 33 33 32 32 31 30 30 29 29 29 28 28 28 27 27 26
38 38 36 37 37 36 36 35 35 35 35 36 36 36 36 36 36 36 36 36 35 35 34 34 34 33 33 32 31 31 31 30 29 29 28 28 27 27 27 27 27 27 26 25
37 37 37 36 35 34 33 33 33 33 34 35 35 35 35 34 34 34 34 34 34 33 33 32 31 31 30 30 29 28 28 27 27 26 26 26 26 26 25 25 25 25 24 24
34 34 35 35 34 34 32 32 31 31 31 32 32 32 32 32 32 32 32 32 31 30 29 29 28 27 26 27 26 26 26 26 25 25 24 24 24 24 24 23 22 22 23 23
30 31 32 32 32 32 31 30 30 29 29 30 30 30 30 30 30 29 29 28 28 27 26 25 24 24 23 23 23 23 22 22 22 22 22 22 22 22 21 21 21 22 24 24
26 27 29 30 29 29 29 29 28 27 27 28 28 28 27 27 27 26 26 24 24 23 22 21 21 20 20 20 20 19 19 18 18 18 19 19 20 20 20 21 22 23 24 25
23 23 24 25 26 26 26 26 26 26 26 26 26 25 24 24 23 23 22 22 20 19 19 19 18 18 18 17 16 15 15 15 15 15 16 16 17 18 19 20 22 23 24 25
19 20 20 21 22 22 23 23 23 22 22 22 22 21 21 20 20 19 19 18 18 17 17 16 16 16 16 15 15 14 15 15 15 15 16 16 17 18 19 20 21 22 23 25
16 17 18 18 19 19 19 19 19 19 19 19 18 18 18 18 17 16 16 16 15 14 14 14 14 14 14 14 15 15 15 15 16 16 17 18 19 20 21 22 23 24 25 26
12 13 14 15 15 15 15 15 15 15 15 15 14 14 14 14 14 14 14 13 12 12 12 12 12 13 13 13 14 14 15 16 17 18 19 20 21 22 23 24 25 26 26 27
8 9 10 11 11 11 11 11 10 10 10 10 10 11 11 11 11 10 10 10 11 11 11 12 12 13 14 15 15 16 18 19 20 20 21 22 23 24 25 26 26 27 28 28
6 7 8 8 9 9 8 8 8 7 8 9 9 9 9 9 9 9 9 10 11 11 12 13 14 15 16 17 18 19 20 21 22 23 24 25 26 27 27 28 28 28 28 28

GEFSNGP_500_meanwind_132.txt.gz
Wind_Speed
30 29 29 29 28 27 27 26 24 22 20 18 16 16 16 15 15 15 15 16 16 15 14 14 12 11 11 10 10 10 10 9 10 10 10 10 11 12 13 14 15 16 16 17
31 30 30 31 30 29 29 28 27 24 22 20 19 18 17 17 17 16 17 17 17 17 15 15 14 12 12 12 12 12 11 11 12 12 12 12 13 13 14 15 16 17 18 18
33 31 31 33 31 30 30 29 28 26 23 21 21 20 19 19 18 18 18 18 18 18 17 16 15 15 14 15 14 14 14 13 14 14 14 14 15 16 16 17 18 18 19 20
35 33 35 32 31 31 30 29 29 28 26 25 24 23 22 21 21 21 20 20 20 20 18 17 16 15 15 16 15 15 15 16 16 16 16 16 16 16 17 17 18 18 19 20
39 37 36 34 33 32 31 31 30 30 30 28 27 26 25 24 24 23 22 22 22 21 20 19 18 17 17 17 18 17 17 17 18 18 18 17 17 17 18 19 19 19 20 20
44 42 40 37 35 34 33 33 31 31 32 31 29 28 27 27 26 25 24 24 24 23 22 21 20 20 20 20 20 19 18 18 18 18 19 19 18 19 20 20 20 21 21 22
47 46 45 42 40 38 38 36 33 33 33 32 32 30 28 28 28 27 26 25 25 25 24 23 22 21 22 21 21 20 20 20 19 20 19 19 20 20 21 22 22 23 24 24
51 50 49 45 44 42 41 38 37 36 35 34 33 32 31 30 30 29 28 28 28 27 26 25 25 24 24 23 23 22 22 22 22 21 21 21 21 22 22 23 24 24 24 25
54 52 50 48 47 45 43 42 39 38 37 37 35 33 33 33 32 31 31 30 30 30 29 28 28 27 27 27 26 25 25 24 24 23 23 24 24 24 24 25 25 25 25 25
53 53 51 49 47 46 44 42 40 39 38 37 36 35 35 35 34 33 32 32 33 33 32 31 30 30 29 28 28 28 27 26 25 26 26 26 26 26 26 26 26 27 26 27
51 51 51 49 47 46 44 42 41 39 37 37 36 36 37 37 37 36 36 35 34 33 33 31 31 30 29 29 29 30 29 28 28 28 28 28 28 28 28 28 28 28 29 29
47 47 48 47 46 44 43 41 40 38 38 37 36 36 37 37 38 38 38 37 35 34 33 32 31 31 31 30 30 30 30 30 30 30 30 30 30 30 30 30 30 30 30 31
44 44 44 44 43 42 41 40 39 39 38 37 36 36 36 36 36 36 36 35 35 34 33 32 31 31 31 30 31 31 32 32 33 32 32 31 32 32 31 31 31 31 31 32
42 42 41 42 41 40 38 38 37 37 36 36 36 36 36 35 35 35 34 34 34 35 35 34 33 32 31 31 32 33 34 34 34 34 34 33 33 32 32 32 32 32 32 32
41 42 41 42 42 40 38 37 36 36 35 35 35 35 35 35 35 35 35 35 34 34 34 34 34 34 33 33 34 34 35 35 35 35 34 33 32 32 31 32 32 32 31 31
38 40 41 41 41 40 39 37 36 35 35 35 34 34 34 34 34 34 34 33 33 33 34 35 35 34 35 35 35 35 35 35 35 34 33 32 32 32 32 32 32 31 31 31
35 37 37 38 38 38 37 36 36 36 36 35 35 35 35 34 33 32 33 33 32 33 33 34 34 35 35 35 35 35 34 34 33 32 32 31 31 31 31 31 31 31 31 31
33 35 35 36 36 37 36 36 35 36 37 37 36 35 34 33 32 33 33 33 34 34 34 34 34 35 35 34 34 33 33 32 32 32 32 31 31 31 30 30 30 30 30 30
32 33 33 33 33 33 34 35 35 35 35 34 34 35 34 33 33 33 33 33 33 32 32 32 32 32 32 32 31 31 30 30 30 31 30 30 30 29 29 28 29 29 29 29
28 29 31 31 30 31 31 32 32 32 32 32 32 32 32 32 32 31 31 30 30 30 30 30 30 30 29 29 29 28 28 28 28 28 28 27 27 27 27 27 27 27 27 28
24 25 26 27 27 28 29 29 29 29 29 30 30 30 29 30 30 30 29 29 29 29 29 28 28 28 27 27 26 26 26 26 26 26 25 25 25 25 25 25 24 24 25 25
21 22 24 24 24 24 25 25 25 25 25 26 27 26 26 26 27 27 27 27 27 27 27 27 26 26 25 25 25 25 24 24 23 23 22 22 22 22 22 22 23 24 24 24
18 19 20 20 21 21 22 22 22 22 22 23 23 23 23 23 24 24 24 24 24 24 24 24 24 23 23 23 22 22 21 21 21 20 20 21 22 22 22 22 23 23 23 23
14 15 17 17 18 19 19 19 19 19 20 20 20 20 20 21 21 22 22 22 22 21 21 21 21 21 21 21 20 19 19 19 20 19 20 20 20 21 21 22 22 23 24 24
11 12 14 14 15 16 17 17 17 17 17 17 17 17 18 18 19 19 19 19 19 19 19 19 19 18 18 18 18 18 18 18 18 19 19 19 20 20 21 22 23 24 26 27
8 9 10 11 12 13 13 13 13 14 14 14 14 15 15 16 16 16 16 15 16 16 17 17 17 17 17 17 17 18 18 18 19 19 20 21 22 23 24 25 27 28 29 29
5 5 6 7 9 10 10 10 10 10 10 10 11 11 12 12 13 13 13 13 14 15 15 15 16 16 17 18 18 18 19 20 21 22 24 25 26 27 28 28 29 29 29 29

GEFSNGP_500_meanwind_138.txt.gz
Wind_Speed
29 29 28 26 25 24 24 22 21 18 17 16 15 14 13 13 12 12 12 12 12 13 13 13 13 13 12 12 12 11 10 10 10 10 11 11 12 12 13 14 15 16 16 17
31 30 29 29 28 26 25 24 22 21 20 19 17 16 15 15 14 13 13 14 14 14 14 14 14 14 14 14 13 12 12 12 12 11 11 12 12 13 14 15 16 16 17 18
32 31 31 32 29 27 26 24 23 22 21 21 19 18 17 16 15 14 15 16 16 17 16 17 17 16 15 15 14 14 13 13 13 14 14 14 15 15 16 17 17 17 18 19
34 34 34 31 30 29 27 26 25 24 24 23 21 20 19 18 18 17 17 18 19 19 18 18 19 19 18 17 16 15 15 15 15 16 16 16 17 18 18 18 18 19 19 19
38 36 35 35 32 29 28 28 27 26 25 24 23 22 21 20 20 20 20 20 20 20 20 20 20 20 19 19 18 17 17 17 17 17 17 18 18 19 19 20 20 20 20 21
42 38 34 35 34 31 30 31 29 27 26 25 24 23 24 23 23 23 23 23 22 22 23 23 22 22 22 21 21 20 20 19 19 19 18 19 19 20 20 21 22 22 22 23
43 41 37 39 36 33 33 32 31 30 29 28 28 27 27 26 26 26 26 25 25 25 25 25 25 25 24 24 24 23 22 21 21 21 21 21 21 21 21 22 23 23 23 24
45 43 40 42 39 37 36 35 33 32 32 31 30 30 29 29 29 28 28 28 28 28 28 27 27 28 27 27 26 26 24 23 23 24 23 23 23 23 23 23 24 24 25 25
47 45 44 43 41 38 37 37 36 35 34 33 33 32 31 31 30 30 30 30 30 30 30 30 30 30 30 28 29 28 27 26 26 26 26 25 25 24 24 25 25 26 27 27
49 48 46 44 42 41 39 38 38 37 37 36 35 34 33 32 32 32 32 32 32 32 32 32 33 33 32 31 31 31 30 29 29 29 28 27 27 27 26 27 27 28 28 29
49 49 47 46 45 43 42 41 40 39 38 37 37 36 35 34 34 34 34 33 33 33 33 33 33 34 35 34 33 33 32 31 31 31 30 30 29 28 28 29 29 30 31 31
49 49 48 47 46 45 44 43 42 41 39 39 37 36 36 36 35 35 35 34 34 35 34 34 34 34 35 34 33 33 32 31 31 31 31 31 31 31 30 31 32 32 33 34
45 46 46 46 46 45 44 44 42 41 40 39 37 36 36 36 35 35 35 35 35 35 34 34 34 33 33 34 34 33 33 33 33 33 33 32 33 33 33 33 33 33 34 35
41 42 43 43 43 43 43 42 42 41 40 39 38 37 36 35 35 35 35 34 34 34 34 34 33 33 34 34 34 34 34 34 34 34 34 34 35 35 35 35 35 35 36 36
39 39 40 40 40 40 40 40 40 40 40 39 38 37 36 36 35 35 35 35 34 34 34 34 35 35 35 35 35 35 36 36 36 36 36 36 37 37 37 37 37 37 38 38
36 36 37 37 37 37 38 38 38 38 38 38 38 37 37 36 36 36 36 35 35 35 35 35 35 35 35 35 35 36 36 36 37 37 38 38 38 37 37 38 38 38 38 38
34 34 35 35 35 35 36 36 36 37 37 37 37 36 36 36 35 35 35 35 35 36 36 36 36 35 35 35 35 36 36 36 37 37 37 38 38 38 38 37 37 37 37 37
33 33 34 34 33 33 34 35 36 36 36 35 35 36 35 34 33 33 33 34 34 35 35 35 36 36 35 35 36 36 36 37 37 37 37 37 37 37 36 36 36 35 35 34
31 31 32 32 33 33 33 32 33 33 33 34 34 34 34 34 34 34 34 34 34 35 35 35 36 36 36 36 35 35 35 36 36 36 35 35 35 35 35 35 35 34 33 33
29 29 29 30 30 31 32 32 32 32 32 33 34 34 33 33 34 34 34 34 34 34 35 35 35 35 34 34 34 34 34 34 34 34 34 34 34 34 34 33 33 32 32 31
26 26 27 28 28 29 29 30 30 30 30 30 31 31 31 31 31 32 33 33 33 33 34 33 33 33 33 33 33 33 33 33 33 33 33 33 32 32 32 31 31 30 29 29
24 25 25 26 26 26 26 26 27 27 27 27 28 29 29 30 30 31 31 31 31 32 32 32 31 31 32 32 32 31 31 31 31 31 31 31 30 29 29 28 28 27 27 26
20 21 22 22 22 23 24 23 24 24 24 25 26 26 27 27 28 28 29 29 29 29 30 30 30 30 30 30 29 29 29 29 29 29 28 28 27 26 26 26 26 25 25 25
16 17 18 19 20 20 21 21 22 22 22 22 23 23 23 23 24 24 25 25 26 26 27 27 27 27 27 27 27 27 27 26 26 26 25 25 25 25 25 25 25 24 24 25
12 13 14 16 17 17 18 19 20 19 19 19 19 19 20 21 21 21 21 21 22 23 23 24 25 25 25 25 25 24 24 23 23 23 23 23 24 24 24 24 24 25 26 26
9 10 11 12 13 13 14 15 16 16 16 16 16 17 17 17 17 17 17 18 19 19 20 20 21 22 22 21 21 20 19 20 20 21 22 23 24 24 24 24 25 26 26 27
7 8 9 10 11 11 12 12 13 14 14 14 14 14 14 14 14 15 15 16 16 17 17 17 18 18 18 19 20 21 21 22 23 23 24 24 24 25 25 25 26 27 28 28

GEFSNGP_500_meanwind_144.txt.gz
Wind_Speed
33 29 23 22 23 23 24 24 23 20 20 19 21 23 23 22 19 19 19 18 18 17 17 17 17 17 18 18 18 17 17 17 16 15 14 14 14 13 14 14 14 14 14 15
36 34 30 26 23 22 22 23 23 23 21 19 22 22 23 23 21 21 20 20 19 17 17 17 18 18 18 18 18 18 18 18 18 17 16 16 16 15 16 15 15 15 15 17
36 33 32 33 29 24 23 23 22 23 23 23 24 24 25 24 23 23 22 21 20 19 18 19 19 19 19 19 19 19 19 19 19 18 18 18 17 17 17 17 17 17 18 18
36 34 35 33 28 27 26 25 24 25 24 25 27 28 28 27 26 25 24 23 21 21 21 21 21 21 21 21 21 21 21 20 20 20 20 19 19 19 19 19 19 19 19 19
38 36 36 32 27 26 26 27 26 26 26 27 28 29 29 28 27 26 25 25 24 23 23 23 23 23 23 22 22 22 22 22 22 22 22 22 21 21 20 20 20 20 20 21
40 38 34 30 26 26 27 30 29 29 30 29 29 30 30 29 29 28 26 26 26 26 26 26 25 25 25 24 24 24 24 24 24 24 24 24 23 22 22 21 21 21 22 22
42 41 37 32 29 28 29 31 31 32 33 33 34 34 33 32 31 29 28 28 29 28 28 28 28 27 27 26 26 27 26 26 26 26 26 26 25 25 24 23 23 24 24 24
44 43 39 34 34 35 35 35 34 34 34 35 35 34 34 34 33 32 32 31 31 31 31 31 30 30 29 29 29 29 29 29 29 29 28 28 27 26 26 26 26 26 26 26
41 42 41 39 40 41 41 40 38 36 36 35 35 35 36 36 35 35 34 34 34 33 33 33 32 32 31 31 31 31 31 31 31 31 31 30 29 29 29 29 28 28 28 28
39 40 41 42 43 44 44 43 41 40 40 39 39 38 38 38 38 37 37 36 36 35 34 34 33 33 33 33 33 33 33 33 32 32 32 31 31 31 31 31 31 30 30 31
42 42 43 46 47 48 47 45 43 43 42 42 41 41 40 39 39 39 38 38 37 37 36 35 35 34 34 34 34 34 34 33 33 33 33 33 33 33 33 33 33 33 33 34
43 45 45 45 46 47 47 47 46 45 44 44 43 43 42 41 41 40 39 39 38 38 37 37 36 36 36 36 36 36 36 35 34 34 34 34 34 34 34 34 35 35 35 35
45 46 47 47 45 46 46 46 45 45 45 44 44 43 42 42 41 41 40 39 39 38 37 37 37 37 37 37 37 36 36 36 35 35 35 35 35 35 35 35 36 36 35 36
46 46 47 46 46 46 46 46 46 45 45 44 44 43 43 42 41 41 40 40 39 38 38 38 38 38 37 37 37 37 37 37 37 37 37 37 37 36 36 36 37 37 37 38
44 44 44 45 46 45 45 45 45 44 44 44 44 44 43 42 41 41 41 40 39 39 39 39 39 39 38 38 38 38 38 38 37 37 37 38 38 38 38 38 38 38 38 39
42 43 43 43 44 44 43 43 43 43 44 43 43 43 42 42 41 41 41 40 40 40 40 40 40 40 39 39 39 39 39 39 39 38 39 39 39 39 39 39 39 39 39 40
40 41 41 41 42 42 43 43 42 42 42 42 42 42 42 42 42 41 41 40 39 39 39 39 39 40 39 39 39 39 39 39 39 39 39 39 39 39 39 39 40 40 40 40
39 39 39 39 39 41 42 41 41 41 41 41 40 40 40 40 41 40 40 40 40 41 41 41 40 39 39 39 39 39 39 39 39 39 39 39 40 40 40 40 40 40 40 39
36 36 37 38 38 39 39 39 38 38 38 37 37 38 39 39 39 39 40 40 41 41 41 41 40 40 39 38 39 39 39 39 39 39 40 40 39 39 40 40 39 39 39 38
33 35 35 35 35 36 38 38 37 37 37 36 36 36 36 36 36 38 39 39 40 40 40 41 41 39 38 38 38 38 38 38 38 38 38 38 38 38 38 37 37 36 37 36
29 30 30 31 32 33 33 33 33 35 35 34 35 35 35 35 35 37 37 38 38 38 38 38 38 37 37 37 37 36 36 36 36 37 37 37 36 36 36 36 36 36 36 36
24 26 27 28 29 30 30 31 31 31 32 32 33 34 35 35 36 36 36 35 35 35 35 35 34 34 34 34 34 34 35 35 36 36 36 36 35 35 35 34 34 34 34 34
21 21 22 24 25 27 27 28 29 28 28 28 30 31 30 31 31 31 31 32 32 31 31 31 31 32 32 33 33 34 34 34 34 34 34 34 34 33 33 33 33 33 33 33
19 18 18 19 20 22 23 24 25 25 25 25 26 27 27 27 28 28 28 28 28 28 28 28 28 29 29 30 31 31 32 32 32 32 32 31 31 30 30 30 31 31 31 31
15 15 15 15 16 17 18 19 20 22 23 23 23 23 23 24 24 24 24 25 25 25 26 26 27 27 28 29 29 29 29 30 30 30 30 29 29 29 29 29 30 30 30 30
11 12 13 13 13 13 13 14 16 17 19 20 20 20 19 19 19 20 21 21 22 23 24 24 25 26 27 27 27 28 28 28 27 27 28 28 29 29 30 30 31 31 31 31
9 9 10 11 11 12 12 13 14 14 15 16 17 18 18 18 18 18 19 19 20 21 22 23 23 24 25 25 25 25 25 25 26 27 27 28 29 30 30 30 30 31 31 31

GEFSNGP_500_meanwind_150.txt.gz
Wind_Speed
34 33 33 31 28 25 23 22 22 21 22 22 23 23 23 23 22 21 19 18 16 16 15 14 14 15 15 14 15 15 15 15 15 15 14 14 14 13 13 13 13 13 13 13
36 35 35 35 32 29 26 24 23 22 21 22 25 27 28 27 25 23 21 19 18 17 16 16 16 16 16 16 16 17 17 16 16 15 15 15 15 15 14 13 14 14 15 14
38 36 36 37 34 32 29 27 26 25 23 23 26 28 29 29 28 25 24 22 19 18 18 18 18 18 18 18 18 18 18 18 17 17 17 17 16 16 16 15 15 15 15 15
40 38 39 36 34 34 33 31 29 28 27 25 27 29 29 30 29 27 25 23 22 20 20 20 20 20 20 20 20 19 19 19 19 19 18 18 18 18 17 17 17 17 17 17
42 41 38 35 34 36 36 35 33 33 30 29 29 30 31 31 29 28 26 27 25 23 22 22 22 23 22 22 21 21 21 22 21 21 21 20 20 20 20 19 19 19 18 18
44 43 41 37 35 37 39 39 37 36 35 33 32 32 32 31 30 28 28 29 28 26 25 24 25 25 25 24 24 23 24 24 24 24 24 23 22 22 21 21 21 21 21 21
47 46 43 39 38 38 40 41 39 39 37 35 34 33 33 33 33 31 31 31 30 30 28 27 27 27 27 27 27 26 26 26 26 26 25 24 24 24 24 24 23 24 24 24
49 47 44 39 38 40 41 41 41 40 39 38 36 36 36 34 34 34 34 34 33 32 30 29 29 30 29 29 29 29 29 29 28 28 27 27 26 26 26 26 26 26 26 26
48 46 43 41 41 41 42 42 42 41 41 40 38 37 36 36 37 36 36 36 36 34 33 32 32 32 31 31 32 32 32 31 30 30 30 30 29 29 29 29 28 28 28 28
47 46 45 44 42 42 43 43 42 43 43 42 41 40 39 39 39 39 39 39 39 37 36 35 35 35 34 34 34 34 33 33 32 32 32 32 32 32 32 32 31 30 30 29
45 45 44 44 43 42 43 43 43 42 43 43 43 42 42 42 42 42 42 42 41 40 39 39 39 39 37 36 36 35 35 34 34 34 34 34 34 34 34 34 33 32 31 31
44 45 44 43 42 42 42 42 42 42 43 43 44 43 42 43 43 44 44 44 44 43 42 42 40 40 39 38 38 37 36 36 36 35 36 36 35 35 35 35 34 33 32 32
43 43 43 42 41 41 41 42 42 42 42 43 43 42 44 45 45 45 45 45 45 44 44 43 42 40 39 39 39 38 38 37 37 37 38 38 37 37 36 36 35 35 34 35
42 41 41 42 41 40 40 40 41 41 40 41 41 41 42 43 44 45 45 45 45 45 44 43 43 41 40 40 39 39 38 37 38 38 39 39 38 38 37 36 36 35 35 36
41 41 41 41 41 42 41 41 40 40 41 41 41 41 41 42 43 45 45 44 44 44 43 43 42 42 41 41 40 40 39 39 39 39 39 39 39 39 38 37 36 36 36 36
43 42 42 43 42 42 42 42 41 41 42 42 42 42 42 43 43 43 43 42 42 42 42 42 41 41 41 41 40 40 39 39 39 39 39 39 39 38 38 37 37 37 37 37
43 43 43 42 43 42 42 43 42 42 41 41 40 40 41 42 42 42 41 41 41 41 42 42 41 41 41 41 40 40 39 39 39 39 38 38 38 38 38 38 38 38 38 38
41 42 42 42 41 42 43 42 43 42 42 41 42 42 42 42 41 41 41 40 40 40 41 41 41 41 40 39 39 39 39 39 39 39 38 38 38 38 38 38 38 38 38 38
38 39 40 41 41 42 42 42 43 43 42 42 42 42 42 41 39 38 38 38 38 38 38 38 39 39 38 38 38 39 39 38 38 37 37 37 36 36 36 37 37 38 38 37
33 35 36 37 39 41 42 43 43 42 40 40 41 40 37 37 37 36 36 36 35 35 36 36 37 37 37 37 37 37 38 37 36 36 36 36 36 36 36 36 36 37 36 36
28 30 31 32 34 35 36 37 37 37 37 36 36 36 35 35 35 35 34 34 34 34 34 34 34 34 34 34 34 34 35 35 35 35 35 35 35 35 35 35 35 35 35 35
25 26 27 28 28 29 30 30 31 32 32 31 31 31 31 31 32 32 32 32 32 31 31 31 31 32 32 32 32 33 33 33 33 33 33 33 33 33 33 34 34 34 34 34
21 22 22 23 24 24 24 25 26 27 27 27 27 27 27 27 28 28 29 29 29 29 30 30 30 29 29 30 30 30 30 30 31 31 32 32 33 33 33 34 33 33 33 33
16 17 18 19 19 20 20 20 20 21 22 22 22 23 23 24 25 26 27 26 26 27 27 28 28 28 27 27 27 28 28 29 29 30 31 31 32 33 33 32 32 31 31 31
12 13 14 16 16 17 17 17 17 17 17 18 19 20 21 22 23 23 23 23 24 24 24 25 26 25 25 25 26 26 27 27 28 29 29 30 31 31 30 30 31 31 32 32
10 11 11 12 13 14 15 15 16 15 16 17 18 18 19 20 20 21 21 21 21 21 22 23 24 24 24 25 25 25 26 26 27 27 27 28 28 29 29 30 30 30 31 31
7 7 8 9 11 12 13 13 14 14 14 14 14 15 16 17 18 18 18 19 19 20 20 21 22 22 22 23 24 25 25 26 26 26 27 27 28 28 29 29 29 30 30 30

GEFSNGP_500_meanwind_156.txt.gz
Wind_Speed
36 34 34 33 32 32 31 29 28 25 23 20 20 19 19 18 18 18 17 16 16 17 16 15 16 15 15 15 15 16 16 17 17 17 17 18 17 17 16 16 16 16 16 15
37 36 35 35 34 33 32 31 30 27 26 23 21 20 20 19 19 18 18 18 18 18 18 17 16 16 16 16 16 16 17 17 18 18 18 18 18 18 19 18 17 17 17 18
38 36 36 38 36 35 34 33 32 30 27 25 24 23 22 21 20 19 19 19 20 20 19 19 18 17 17 18 17 17 18 18 19 19 19 20 20 20 20 20 19 18 19 19
39 37 39 37 35 36 35 34 34 33 31 29 27 26 24 23 22 21 21 21 21 20 21 21 20 19 19 20 20 20 21 21 21 21 21 21 21 21 21 20 19 19 19 19
40 39 39 38 36 36 36 36 35 35 33 32 30 29 27 25 24 24 23 23 23 23 23 22 22 22 22 22 22 23 23 23 23 23 24 23 22 23 22 21 21 21 21 20
41 41 40 39 37 36 36 36 36 36 34 33 32 31 28 27 26 26 26 27 27 26 26 25 24 24 25 26 25 25 25 25 25 25 25 25 25 25 25 24 23 23 23 23
43 43 42 40 39 38 38 38 36 37 36 35 34 33 32 31 29 29 28 28 28 28 29 28 27 28 29 28 28 28 27 28 28 28 28 27 27 27 27 26 25 25 25 25
46 45 44 43 42 41 40 39 39 38 37 36 35 35 34 33 32 31 31 31 31 30 31 32 31 31 32 32 31 31 30 31 30 31 31 31 30 29 28 28 27 27 27 27
49 47 46 45 45 44 43 41 40 39 38 37 36 36 35 35 35 35 35 34 34 34 34 35 35 35 36 35 35 35 34 34 34 34 34 34 33 32 29 28 29 29 29 29
51 50 49 47 46 45 45 44 43 42 40 39 39 38 38 38 38 38 38 37 37 37 37 37 38 38 38 39 40 38 37 37 37 36 35 35 35 33 31 30 31 31 31 31
50 51 50 49 48 47 46 46 45 43 42 42 41 41 41 40 40 40 40 39 40 40 40 40 41 41 42 42 42 41 40 39 38 37 36 35 34 33 32 32 33 33 32 33
49 49 49 49 48 46 46 45 44 43 43 42 42 42 42 42 42 41 41 41 41 41 41 41 42 42 43 43 43 43 41 40 39 38 37 36 34 34 34 34 35 35 35 36
47 47 47 48 47 46 45 44 43 43 43 42 42 42 41 42 43 42 42 42 42 42 42 43 42 43 43 42 43 43 41 39 39 38 37 36 34 35 35 35 36 37 37 38
45 45 46 45 45 45 45 45 44 43 42 42 41 41 41 41 42 42 42 42 43 43 43 41 41 42 43 43 42 41 41 39 39 37 36 35 35 35 36 36 37 38 38 38
42 42 43 43 43 43 43 44 44 44 43 42 42 41 41 40 40 40 41 41 41 42 41 41 41 41 41 41 41 41 41 40 39 38 37 38 37 37 37 38 38 39 39 39
40 40 41 41 42 43 42 42 42 42 41 40 41 41 40 39 40 41 41 41 41 40 40 39 39 39 39 40 40 40 39 39 38 38 37 38 38 38 38 38 38 39 39 39
38 39 39 39 39 39 39 40 40 40 39 38 38 38 38 38 39 39 39 39 40 40 39 39 39 38 39 39 39 39 38 38 38 38 39 38 38 39 39 39 39 38 38 38
36 36 36 36 37 37 37 37 38 38 39 38 35 35 36 38 39 38 38 38 39 39 38 38 38 38 39 39 39 39 39 38 38 39 38 39 39 39 39 39 39 39 38 38
34 35 35 35 36 36 37 36 36 36 36 36 36 36 36 36 37 37 36 37 37 38 38 38 38 39 39 38 38 38 38 37 37 37 38 38 38 38 38 38 38 38 38 37
30 31 32 32 33 33 34 34 34 35 35 35 35 34 35 35 35 36 36 36 36 36 37 36 37 37 37 36 36 36 36 36 37 37 37 37 37 37 37 38 38 37 37 37
27 28 29 30 30 31 31 32 32 32 32 32 32 32 33 33 33 33 34 34 33 33 33 32 32 32 33 33 34 34 35 35 35 35 35 35 36 36 37 37 36 36 36 36
24 25 26 27 27 28 29 29 30 30 30 31 31 30 31 31 30 30 31 31 31 31 31 31 31 31 31 32 32 32 32 32 33 33 33 34 35 35 34 34 34 34 34 34
21 22 23 24 24 25 25 26 26 27 27 28 28 27 28 28 28 28 28 28 28 29 29 29 29 30 30 30 29 29 29 30 31 31 32 32 32 32 32 32 32 33 33 33
17 19 20 21 21 22 23 24 24 24 24 24 24 24 24 24 25 25 26 27 27 27 27 27 27 28 28 28 28 28 28 29 29 30 30 31 31 31 31 31 32 32 32 33
15 16 17 18 19 19 20 20 20 21 21 21 21 21 22 22 22 23 24 25 25 25 25 25 25 25 25 25 26 27 28 28 29 29 30 30 30 30 30 31 31 32 32 32
12 12 12 13 14 15 16 17 17 17 17 17 18 19 19 20 20 20 21 22 22 23 23 24 23 23 23 24 25 25 27 27 28 28 29 29 30 30 31 31 31 32 33 33
8 9 9 10 11 12 12 13 13 13 14 15 16 17 18 18 18 19 19 20 20 21 21 21 21 22 23 23 24 25 26 26 26 27 27 28 29 29 30 31 31 32 32 33

GEFSNGP_500_meanwind_162.txt.gz
Wind_Speed
36 34 33 33 32 31 31 29 27 25 23 21 20 19 18 17 16 16 16 16 16 15 15 15 15 15 14 14 14 15 15 15 16 16 16 16 17 17 17 17 17 17 17 17
38 36 35 35 34 34 33 32 30 28 26 23 22 21 20 19 18 18 18 18 18 17 17 17 16 16 15 15 16 16 17 18 18 18 18 18 19 19 19 19 19 18 18 19
39 38 38 38 36 35 34 33 32 30 28 26 25 23 22 21 20 19 19 20 20 20 19 18 19 18 18 18 18 18 19 19 19 20 20 20 20 20 20 20 20 20 20 20
39 39 40 38 36 36 35 34 33 32 31 28 27 25 24 23 22 22 22 22 22 22 21 21 21 21 20 20 20 20 21 21 22 22 22 22 22 23 23 22 22 22 21 21
40 39 40 40 39 36 35 35 33 33 32 30 28 27 27 25 25 24 24 24 24 24 24 24 24 24 23 23 23 23 23 24 24 25 25 25 25 25 25 25 25 24 24 23
42 40 37 39 38 35 35 36 35 33 33 31 30 28 29 28 27 27 26 26 26 26 26 27 27 27 26 26 26 26 26 27 27 28 27 27 28 27 27 27 27 27 26 26
42 41 38 40 38 36 36 37 35 34 33 33 32 31 31 30 29 29 28 28 28 28 28 29 30 30 30 29 30 30 30 30 30 29 29 30 30 30 30 30 30 30 29 28
42 41 41 43 40 39 38 38 37 35 34 33 33 33 32 32 31 31 30 30 30 30 30 31 32 33 33 33 33 33 33 34 34 33 33 33 34 33 33 32 31 31 30 29
44 43 44 42 41 40 40 39 38 37 37 36 35 35 35 34 34 33 32 32 32 32 32 33 34 35 35 34 36 36 36 37 37 37 37 37 36 35 34 33 33 32 31 30
44 44 44 43 41 40 40 39 39 38 38 37 37 37 37 36 35 35 34 34 34 34 35 36 36 37 37 38 39 39 40 40 39 38 39 39 37 35 34 34 34 33 33 32
44 44 43 43 42 41 40 39 39 39 39 38 38 38 37 37 37 36 36 36 36 36 37 37 38 39 40 40 41 41 41 41 41 41 40 40 39 37 36 35 35 35 34 33
42 43 43 42 42 42 41 41 40 40 39 39 39 39 38 38 38 38 38 38 39 39 39 39 40 41 41 41 42 42 42 42 42 41 41 40 39 39 38 37 36 35 34 33
41 42 42 42 42 42 43 42 42 41 40 39 39 40 40 40 39 39 39 40 39 39 40 40 41 41 42 42 41 42 42 42 41 41 40 39 39 39 39 38 37 36 35 34
40 41 42 41 42 42 42 42 41 41 41 40 40 40 40 40 40 40 40 40 40 39 39 39 39 40 41 41 41 41 41 42 42 41 39 39 39 39 38 37 36 35 35 35
39 40 41 41 41 41 41 40 40 40 40 40 41 41 41 41 41 41 40 40 39 38 39 39 40 40 41 41 41 41 41 42 41 40 39 39 39 38 37 37 36 36 36 36
37 39 40 41 41 40 40 40 40 39 40 40 40 40 40 40 40 40 40 40 40 39 39 39 40 39 39 40 40 40 40 41 40 40 41 40 39 39 38 38 37 38 38 38
34 36 38 39 39 39 39 39 40 40 39 39 38 38 38 38 38 38 37 38 39 40 40 40 40 41 41 41 40 40 41 41 41 41 41 39 39 39 39 39 39 39 39 39
31 32 34 35 35 36 37 38 37 37 37 37 37 36 36 36 37 37 37 37 37 37 38 38 39 40 40 40 40 40 40 40 39 39 39 39 39 39 39 39 39 39 40 40
27 28 29 31 32 32 32 33 34 35 35 34 34 35 35 35 35 36 36 37 37 36 37 37 37 37 37 37 37 37 37 37 36 36 37 37 38 38 38 38 38 39 39 39
23 24 26 28 29 30 30 30 30 31 31 32 32 33 33 34 34 34 35 35 36 36 35 35 34 34 34 35 35 35 35 35 35 35 36 36 37 37 37 37 37 37 37 37
21 22 23 24 26 27 28 28 28 29 29 30 30 30 31 31 33 33 33 33 33 33 33 33 33 33 33 34 34 34 34 34 34 34 35 35 35 35 35 35 35 35 36 37
20 20 21 22 23 24 25 26 26 27 27 28 28 28 29 29 30 31 31 31 32 31 32 32 32 33 32 32 32 32 33 33 33 34 34 34 34 33 33 34 34 35 35 36
19 19 20 20 21 22 23 24 25 26 26 27 27 27 27 27 28 28 29 29 29 30 30 30 31 31 31 31 31 31 32 32 32 33 33 33 32 32 33 33 34 34 34 34
17 17 18 19 20 21 21 22 23 24 24 25 25 25 25 25 26 26 26 27 27 28 28 29 29 30 30 29 30 30 31 31 31 31 31 31 31 31 32 32 33 33 33 33
15 16 16 17 18 18 19 20 21 21 22 22 23 23 23 24 24 24 25 25 25 26 26 27 27 27 28 28 28 28 28 29 29 29 29 29 30 30 31 31 31 32 33 33
12 13 14 15 15 16 17 17 18 19 19 20 20 21 21 21 22 22 22 22 23 23 24 23 24 24 24 25 25 26 27 28 28 28 28 28 29 29 30 30 31 32 32 33
10 10 11 11 12 12 13 14 15 15 16 16 17 17 18 18 19 19 20 21 21 21 22 22 22 23 23 24 24 25 26 26 26 26 27 27 28 29 29 30 31 31 32 32

GEFSNGP_500_meanwind_168.txt.gz
Wind_Speed
36 32 28 27 27 26 28 29 27 24 24 23 24 23 24 24 23 23 22 21 20 20 20 18 18 18 18 19 19 19 18 18 18 19 19 19 20 21 21 21 20 20 20 20
39 37 33 31 29 27 27 28 28 26 25 25 26 25 27 27 25 24 23 23 23 22 22 21 20 20 20 20 20 21 20 19 19 20 20 21 22 23 23 24 23 22 22 23
41 38 36 37 32 29 28 28 28 28 27 26 28 29 30 29 27 25 25 25 25 24 24 23 23 22 22 22 22 22 22 21 21 22 22 23 23 24 25 26 26 26 25 25
41 38 39 38 33 31 30 31 30 31 31 32 33 32 34 33 31 28 27 27 27 26 26 25 25 25 24 24 24 24 24 24 24 25 25 25 25 26 26 27 28 28 28 27
42 40 40 37 35 33 32 33 33 33 34 35 34 34 35 35 32 30 30 29 28 28 28 27 26 27 27 26 27 27 27 27 27 28 28 28 28 29 29 30 30 30 30 30
43 41 38 36 34 34 34 36 36 35 36 36 35 34 36 35 33 32 31 30 29 29 30 29 29 29 29 29 29 30 30 30 29 29 30 31 31 31 32 33 32 31 32 32
44 43 41 36 34 35 38 40 39 38 38 38 38 38 37 36 34 32 32 30 30 31 31 31 32 31 31 31 31 32 32 32 32 32 33 34 34 34 34 34 34 34 33 33
43 43 40 40 38 39 40 40 40 40 40 40 39 39 38 37 34 33 32 32 32 33 33 33 33 33 32 32 33 33 34 35 34 35 36 36 36 36 37 36 36 36 35 34
42 44 44 42 44 44 42 41 40 40 41 41 40 40 39 37 37 36 35 35 35 35 35 35 35 35 34 34 35 35 36 36 37 37 38 38 38 38 38 39 38 36 36 35
40 43 45 44 43 44 44 43 42 41 41 41 40 39 39 38 38 37 37 37 37 37 38 38 37 37 37 36 37 38 38 38 38 39 39 40 40 40 39 39 39 38 37 37
41 42 44 46 46 44 45 44 44 43 42 41 41 40 40 40 39 39 38 38 38 38 38 38 39 38 38 38 39 39 39 39 39 40 41 41 41 41 40 40 40 40 39 38
41 42 42 43 44 43 44 45 44 44 44 43 43 43 42 42 40 39 40 40 40 40 40 40 40 40 39 40 40 40 40 40 40 41 41 41 41 41 40 40 40 40 40 39
40 43 41 40 41 43 43 43 44 44 45 45 44 44 43 43 43 42 41 41 40 41 41 41 41 41 41 41 41 42 42 41 42 41 41 41 41 41 40 40 39 40 40 40
33 37 38 39 40 40 41 42 43 42 43 43 44 43 43 43 44 43 42 41 41 41 41 41 41 42 42 42 42 42 42 42 42 42 41 42 41 41 41 41 40 40 40 40
32 35 38 39 40 41 41 41 42 43 42 43 44 44 42 42 40 41 42 42 41 41 42 42 43 42 42 42 41 41 41 42 42 42 42 42 41 41 41 41 41 41 41 41
31 31 34 36 37 39 39 38 40 42 41 42 43 44 44 44 42 41 42 42 42 42 42 43 43 43 42 42 42 41 41 42 42 43 43 42 41 41 41 41 42 42 42 41
31 32 33 34 35 37 37 37 39 40 40 39 40 41 42 43 43 43 43 42 42 42 41 41 43 43 42 41 41 41 41 41 42 41 41 41 41 41 42 42 42 41 41 40
28 31 31 32 33 34 35 36 36 37 37 38 38 39 40 40 41 40 41 41 42 42 41 40 41 41 41 41 41 41 41 41 41 41 40 40 41 41 41 41 41 41 41 40
29 30 29 30 31 33 34 36 35 35 36 36 37 37 38 38 38 38 38 39 39 38 38 38 39 39 39 39 40 40 40 40 41 40 40 40 40 40 40 40 40 40 41 40
28 29 29 29 29 31 32 33 35 35 34 34 34 35 36 36 36 36 35 35 34 35 35 36 37 37 37 38 39 39 39 39 39 39 39 39 39 39 39 40 40 40 40 39
24 26 28 28 29 29 30 31 32 33 34 34 34 34 34 34 34 34 34 34 34 34 34 34 35 35 35 36 36 37 37 38 38 38 38 38 38 38 38 39 39 39 39 38
20 22 24 24 25 26 27 27 28 30 31 32 33 32 32 32 33 33 32 33 34 33 34 33 33 33 34 34 35 35 36 37 37 37 37 37 36 36 36 37 37 37 36 36
18 19 21 22 22 23 24 24 25 26 27 28 29 30 30 30 30 30 30 30 31 31 31 31 31 32 32 32 33 33 34 34 34 34 35 35 34 34 34 35 36 36 36 36
17 18 19 19 20 21 22 23 24 24 25 25 25 26 27 28 28 29 29 29 29 29 29 29 29 29 30 30 30 31 31 31 32 32 32 32 32 33 33 33 34 34 35 35
16 16 18 19 19 20 20 21 21 22 22 23 24 24 25 26 26 26 27 27 27 27 26 26 27 28 28 28 28 28 28 29 29 29 29 30 31 31 32 32 32 33 33 34
16 17 17 17 17 18 18 19 19 20 20 21 21 22 23 23 23 23 24 25 25 25 24 24 25 25 26 26 27 27 27 27 28 28 28 29 30 30 31 31 31 32 32 33
13 14 14 14 15 15 15 16 16 17 18 18 19 19 20 21 21 21 21 21 22 22 23 24 24 25 25 25 26 26 26 26 27 28 28 29 29 30 30 30 31 31 32 32

GEFSNGP_500_meanwind_174.txt.gz
Wind_Speed
38 36 35 35 34 32 32 32 32 30 29 27 26 24 23 24 22 22 21 20 19 19 19 19 18 15 14 13 14 14 15 16 17 17 18 18 18 17 16 16 17 16 17 18
41 40 39 38 37 36 35 33 34 33 32 29 29 29 28 26 25 25 24 23 24 24 22 22 20 19 17 16 17 17 17 18 18 19 20 20 20 20 18 18 18 18 18 20
44 42 42 42 39 37 37 36 35 35 33 31 32 32 32 31 29 27 27 27 27 26 25 24 24 24 21 19 20 20 20 20 20 22 23 23 21 21 22 21 21 21 21 22
45 44 45 42 39 39 39 38 37 36 35 35 34 34 33 32 31 30 30 30 30 29 29 28 26 25 24 24 24 23 23 24 23 24 25 23 24 24 24 25 24 24 24 25
45 46 46 43 41 40 40 39 38 37 37 37 35 36 36 35 34 33 33 33 32 32 31 30 28 27 27 26 26 26 26 26 26 26 27 27 27 27 27 26 26 26 27 28
44 45 46 43 42 43 41 41 40 40 39 38 38 38 39 37 37 36 36 37 36 35 34 32 30 30 29 28 28 28 28 29 28 28 29 29 29 29 29 28 28 28 29 31
45 46 46 44 42 43 44 43 41 41 41 40 40 40 40 39 39 39 39 38 38 37 36 35 34 34 32 31 30 30 30 31 31 30 30 31 31 31 31 30 30 31 32 33
45 47 47 45 44 44 44 44 44 43 43 42 42 42 42 42 41 41 41 40 40 39 38 37 36 35 34 32 32 32 33 33 33 32 32 33 32 33 32 32 32 33 34 34
45 46 46 46 46 45 45 45 45 45 45 45 44 44 44 44 44 44 43 42 41 41 39 38 38 37 36 34 32 33 34 34 33 33 33 34 34 34 34 34 35 35 36 35
44 45 46 46 46 46 46 46 46 46 46 46 46 47 47 47 45 45 44 43 43 42 41 40 40 38 37 37 34 34 35 36 35 35 35 35 36 35 35 36 36 37 36 36
43 44 45 45 46 46 46 46 46 47 47 47 47 47 47 46 46 46 45 44 44 43 43 42 41 40 40 38 36 36 36 37 36 36 36 37 37 37 37 37 38 37 37 37
40 41 43 44 45 45 45 45 46 46 47 47 48 48 48 48 47 47 46 46 45 44 43 42 41 40 39 39 39 38 38 38 38 38 38 38 39 39 39 39 39 38 38 38
38 39 41 41 41 41 42 43 43 43 45 46 46 47 47 48 48 48 47 46 46 45 43 41 41 41 40 41 40 39 39 39 39 39 39 39 39 40 39 39 39 39 39 39
36 37 38 39 39 39 38 39 39 39 42 43 43 43 44 46 46 46 46 45 45 44 43 42 41 41 41 41 41 40 39 39 40 40 40 40 40 39 39 38 39 39 39 39
33 35 36 36 36 37 37 36 36 36 36 37 38 40 42 43 44 44 44 43 42 42 42 41 42 42 42 42 41 42 41 40 41 40 40 40 40 39 39 39 39 39 39 39
32 32 33 34 33 33 34 33 33 34 35 35 36 37 38 38 39 40 41 42 42 42 42 42 42 42 42 42 42 42 41 41 40 40 40 40 40 39 40 39 39 40 40 40
29 29 30 31 31 30 30 31 31 33 34 34 34 34 34 34 35 36 37 39 40 41 41 41 41 41 40 40 40 40 39 39 39 39 38 38 39 39 39 39 39 39 40 40
26 27 28 28 26 25 27 29 31 32 31 31 31 32 33 33 34 35 36 37 37 38 39 39 39 40 39 39 39 39 39 40 39 38 38 38 39 39 38 39 39 39 39 38
23 24 25 26 26 25 27 27 27 28 29 29 29 30 31 33 34 34 33 35 36 37 37 37 36 37 38 38 39 39 39 39 39 38 38 38 39 39 38 38 38 38 38 37
21 23 25 25 24 24 25 26 25 24 25 26 27 27 29 31 31 31 32 33 33 34 34 35 35 35 36 36 37 37 37 37 37 37 37 37 38 37 37 37 36 36 36 36
17 19 22 23 22 21 21 21 22 22 23 26 28 28 27 29 30 31 31 32 31 32 33 33 33 34 35 35 34 34 34 35 35 36 36 35 35 35 34 34 34 34 34 34
15 16 17 19 19 19 19 20 19 20 22 23 25 26 27 27 28 28 29 30 30 30 31 31 31 31 32 32 31 31 31 31 31 31 31 31 32 32 32 32 32 32 33 32
13 14 15 16 17 16 17 18 18 19 20 21 21 22 23 24 26 27 27 27 27 28 28 28 28 27 28 29 29 29 28 28 28 28 28 29 30 31 31 31 31 31 32 32
11 12 13 14 15 16 16 17 18 18 19 20 21 21 21 22 23 23 23 23 24 25 25 25 25 25 24 24 25 25 26 26 27 27 28 29 29 29 29 29 29 30 30 30
11 11 12 13 13 14 14 15 16 16 17 17 18 19 19 19 19 20 20 20 20 21 21 22 22 22 23 23 24 24 24 25 25 25 26 26 26 27 28 27 28 28 28 29
11 11 11 11 12 13 13 14 15 16 16 16 16 17 17 17 17 17 17 18 18 19 20 20 21 21 22 22 22 22 23 24 24 25 25 25 26 26 27 27 28 28 28 28
10 11 11 12 12 12 12 13 13 14 14 14 14 15 15 15 16 16 16 17 18 19 19 20 20 21 21 21 21 22 22 24 24 25 25 25 26 26 26 27 27 27 27 28

GEFSNGP_500_meanwind_180.txt.gz
Wind_Speed
35 34 35 35 36 36 37 37 36 35 33 30 28 27 26 25 25 24 23 21 21 20 18 17 17 18 20 20 20 18 16 16 17 18 19 19 20 20 20 20 18 16 16 16
37 37 37 37 38 38 38 38 37 37 35 33 31 30 29 28 27 26 25 23 22 21 21 20 20 20 21 21 21 20 19 18 18 19 21 21 22 22 21 20 19 18 18 18
40 39 40 41 40 40 40 39 39 39 38 36 35 33 33 31 30 30 28 27 25 25 24 23 23 22 22 22 22 23 22 21 20 21 22 23 23 22 22 21 21 20 20 20
41 41 43 41 41 41 41 41 41 41 40 39 37 36 34 33 32 32 31 30 29 28 27 27 27 26 25 25 25 25 25 25 24 24 25 25 25 24 24 24 23 23 23 22
42 42 43 42 41 41 41 42 41 40 40 40 39 37 37 36 35 34 33 32 31 31 30 29 30 30 29 29 28 28 28 28 28 28 27 27 26 26 26 27 26 25 25 25
41 42 43 42 41 41 41 42 42 41 40 40 40 39 37 37 37 37 36 36 35 34 33 33 32 32 32 31 31 31 30 30 31 30 29 28 28 28 29 29 28 27 27 27
41 42 43 42 42 41 42 42 41 41 41 40 40 39 38 37 38 39 39 38 37 36 36 36 36 36 35 34 33 33 34 35 33 32 31 30 30 29 30 30 30 30 29 29
42 42 42 42 42 43 42 42 42 42 42 42 41 40 39 39 39 39 40 39 38 39 39 39 39 37 36 36 36 37 38 37 34 34 34 33 31 31 32 32 31 31 32 31
42 42 42 42 43 43 43 43 43 43 43 43 43 43 42 42 41 40 41 40 40 41 41 42 41 39 37 37 38 39 40 39 39 37 35 34 33 33 33 34 33 34 34 33
41 41 42 42 43 43 44 44 44 45 44 44 44 44 44 45 44 43 42 43 43 43 44 45 44 42 40 40 39 40 41 41 40 38 36 36 35 34 35 35 35 36 35 34
40 41 42 41 42 43 43 44 44 45 45 46 46 46 45 45 46 46 45 45 45 46 46 46 44 43 43 43 43 42 41 40 39 39 36 35 36 37 35 35 35 36 35 34
38 39 40 40 41 42 43 43 44 44 45 45 45 45 45 45 45 46 47 47 46 46 47 47 45 43 43 44 43 42 41 40 38 37 36 36 37 37 37 35 35 35 35 35
38 38 39 39 39 40 41 42 42 43 43 44 45 45 45 45 46 46 46 46 46 45 44 44 44 45 45 45 44 43 42 40 39 39 38 38 38 37 37 36 34 35 35 36
36 37 37 37 38 39 39 39 39 40 41 41 43 44 45 45 46 46 45 45 44 43 44 45 45 45 44 45 45 44 42 40 41 40 40 39 38 37 37 37 36 36 37 37
34 35 35 35 35 36 37 36 37 37 37 38 39 41 42 43 45 44 43 44 44 44 44 44 45 44 44 45 44 43 41 40 41 41 41 40 39 39 38 38 37 37 37 37
31 32 33 33 33 34 35 35 35 35 35 36 37 39 40 42 43 43 43 43 42 43 44 44 44 44 43 42 41 41 41 40 40 40 40 39 39 38 37 37 37 37 37 37
29 30 31 31 30 31 32 33 33 33 33 34 35 36 38 39 38 39 39 36 36 39 40 40 40 40 41 41 40 40 40 40 40 39 39 39 39 40 39 39 38 37 37 37
26 27 27 28 28 28 28 30 30 30 30 30 31 31 32 34 35 35 35 35 34 35 35 35 34 35 36 37 37 37 36 36 37 38 39 40 40 40 39 38 37 37 37 38
22 23 24 25 26 26 26 27 27 27 27 26 25 26 27 28 30 31 30 30 31 31 31 31 32 33 34 35 37 36 36 36 37 37 38 38 37 37 37 37 37 37 36 37
18 20 21 22 23 24 24 24 24 24 24 24 24 24 25 26 26 26 27 28 29 29 30 31 32 33 32 32 33 34 35 35 36 36 36 36 36 36 36 35 35 35 35 35
16 16 17 18 20 21 21 22 22 23 24 24 23 24 23 23 25 26 27 27 27 29 29 30 29 30 30 31 32 32 33 34 34 34 34 34 34 34 34 33 34 35 35 35
14 14 14 15 17 18 19 20 21 22 22 22 23 23 22 22 23 24 25 26 27 28 28 28 28 28 29 30 31 31 32 32 32 32 32 32 32 33 33 33 33 33 32 33
11 12 13 14 15 16 17 18 19 19 19 19 20 21 22 23 23 24 24 24 25 25 25 25 25 26 27 28 28 28 28 29 29 30 30 30 31 30 30 30 30 30 30 30
10 11 12 13 13 13 14 14 15 15 15 16 17 18 19 20 21 22 22 22 23 24 24 23 24 24 24 24 24 25 25 26 26 27 28 29 29 29 29 29 29 29 29 29
9 10 11 11 11 12 11 11 11 12 13 13 14 15 16 17 17 18 19 20 21 21 21 21 22 22 22 23 22 23 24 24 24 25 26 26 27 27 27 27 28 28 29 29
10 11 11 11 11 11 11 11 11 12 12 12 13 14 14 15 15 16 17 17 18 18 19 19 20 20 20 21 22 22 22 23 23 23 24 25 25 26 27 27 28 28 29 29
10 11 11 12 11 11 11 11 11 12 11 12 12 12 13 13 14 14 15 15 15 16 17 18 18 18 19 19 20 20 20 21 22 23 23 24 25 26 27 27 28 28 28 29

GEFSNGP_500_meanwind_186.txt.gz
Wind_Speed
35 33 34 35 35 36 36 36 34 32 32 32 30 28 27 27 26 26 26 25 25 25 24 23 22 22 21 20 20 20 19 18 18 18 18 18 18 18 18 17 18 18 18 18
36 35 34 35 35 36 36 36 36 35 35 33 32 31 29 29 29 29 28 28 28 27 27 26 25 24 24 24 23 22 22 21 21 20 21 21 20 20 20 20 20 20 20 20
36 36 35 36 36 36 36 36 36 36 36 34 34 33 32 31 31 31 31 30 30 30 29 29 28 28 27 27 26 26 25 24 23 23 23 23 23 24 23 22 23 23 22 22
36 36 37 37 37 36 36 36 36 36 36 35 35 35 34 34 34 34 33 33 33 32 32 31 31 31 31 30 28 28 28 27 27 26 26 26 27 26 26 26 25 24 24 24
36 36 38 39 38 37 37 38 38 38 38 37 37 36 36 36 36 36 36 35 35 35 35 35 35 34 33 32 31 31 30 30 30 30 29 29 29 29 28 27 26 26 26 26
37 35 36 38 38 38 38 40 39 39 39 39 39 39 39 38 37 37 37 38 37 37 37 38 38 36 35 34 34 33 32 33 33 33 32 31 30 30 29 29 29 29 28 28
36 36 36 38 37 36 38 39 38 38 39 39 39 40 39 39 39 38 38 39 39 39 39 40 40 39 38 37 36 36 36 36 36 36 35 34 33 33 32 32 31 31 30 30
36 36 37 39 37 37 38 38 37 38 38 39 39 40 40 40 40 40 40 40 41 41 42 42 42 41 41 41 40 40 39 39 39 38 38 37 36 35 35 34 34 33 32 31
37 38 39 39 39 38 38 37 37 38 38 39 40 40 41 41 41 41 41 41 42 42 42 43 43 43 44 43 43 42 42 42 42 41 41 40 39 38 37 35 34 34 33 32
36 37 38 38 38 39 38 38 38 38 39 39 40 40 41 41 42 41 41 41 42 42 42 42 43 43 43 43 43 43 43 43 43 43 42 41 41 40 39 37 35 34 34 34
34 34 35 36 36 37 38 39 39 39 40 40 40 40 41 41 42 42 42 42 43 43 43 43 43 43 43 43 43 43 44 45 46 43 41 41 40 40 39 37 36 36 36 35
33 34 34 34 35 36 37 37 38 39 39 40 41 42 42 43 43 43 43 43 43 44 44 44 44 44 44 45 45 45 45 46 46 45 44 43 44 42 39 37 37 38 38 38
32 32 33 33 34 35 36 37 38 38 39 39 40 41 42 42 42 42 42 42 43 43 44 45 45 44 44 45 45 45 45 45 45 45 43 42 43 42 40 39 39 38 37 37
30 31 32 33 33 34 35 36 37 37 38 39 39 39 40 40 40 40 41 42 42 43 43 44 44 45 45 44 45 45 44 44 45 43 44 44 44 44 44 41 38 38 37 38
29 30 31 31 32 33 34 35 35 36 37 37 37 38 38 39 39 38 39 41 42 42 42 42 42 43 44 44 44 44 44 44 44 43 43 43 43 42 40 38 38 38 38 39
28 28 29 30 30 31 31 32 33 34 34 34 35 36 36 37 37 36 36 38 39 39 39 39 40 40 41 41 42 42 42 42 41 41 41 40 39 38 38 36 36 37 38 38
26 26 26 27 28 28 29 31 32 32 31 31 32 33 34 34 34 34 35 35 36 37 37 36 37 37 37 37 38 39 40 40 40 40 40 39 37 37 36 36 37 38 37 37
22 23 24 24 25 26 27 28 28 29 29 29 30 31 31 31 31 31 32 33 34 34 35 34 33 33 33 35 37 38 39 39 39 38 38 36 36 35 35 36 36 36 35 34
20 21 21 21 22 23 23 24 25 25 25 26 26 27 28 27 27 28 28 29 30 32 32 31 31 31 32 33 34 34 35 35 35 36 35 36 36 35 34 33 33 33 32 31
18 18 19 20 20 20 20 21 22 23 23 24 24 23 24 24 25 26 26 27 28 28 28 29 29 28 28 29 30 31 32 33 34 34 33 33 34 33 32 31 31 31 31 31
16 16 17 17 17 18 18 19 20 21 21 21 21 21 22 23 24 24 25 25 26 26 26 27 27 27 27 28 29 30 31 32 32 32 32 32 33 32 31 31 30 30 30 31
16 16 15 16 17 17 18 19 19 19 20 20 20 20 21 22 23 24 24 24 24 24 25 26 26 26 26 27 28 28 28 29 30 30 31 31 31 30 30 30 29 29 30 31
14 14 14 15 16 16 17 17 18 18 18 19 19 20 20 20 21 21 21 21 21 21 22 23 24 24 25 26 26 26 26 27 27 28 28 29 29 30 29 28 28 29 29 30
12 12 12 13 13 13 13 14 15 16 16 17 18 17 17 17 17 17 17 18 19 19 19 20 21 22 23 23 23 23 23 24 24 25 25 26 26 26 26 27 27 28 29 29
12 12 12 11 11 11 12 13 14 15 15 15 15 15 15 15 15 15 15 16 17 18 18 18 18 19 20 21 21 20 20 20 21 21 22 22 23 23 24 25 26 26 27 27
11 12 12 12 12 12 12 12 13 14 14 14 14 14 14 13 13 13 14 14 15 15 16 16 17 17 18 18 18 19 19 20 20 21 21 21 22 22 23 23 24 25 26 27
9 10 10 11 11 11 11 11 11 11 12 13 13 12 12 12 12 13 13 13 13 14 15 15 16 16 17 17 17 18 18 18 19 20 20 20 21 21 21 22 23 24 25 26

GEFSNGP_500_meanwind_192.txt.gz
Wind_Speed
35 32 29 27 25 26 28 30 30 29 28 30 30 30 31 30 30 29 30 28 28 28 27 26 26 26 26 25 25 24 23 22 22 23 23 23 22 22 22 22 22 23 23 22
37 35 32 32 30 28 30 30 30 31 32 33 33 33 33 33 33 32 32 32 30 30 30 29 29 28 29 28 28 28 27 26 25 25 25 25 25 25 24 24 25 24 24 23
36 35 33 34 33 31 31 32 32 33 35 35 36 36 36 35 36 36 35 33 32 32 32 31 31 31 31 31 31 30 29 29 28 28 27 28 27 27 27 26 26 26 25 26
36 35 36 35 32 32 33 33 34 37 38 38 39 39 38 37 37 37 35 34 34 33 33 33 33 33 32 33 33 32 32 32 31 30 30 30 29 29 29 29 28 27 27 28
35 34 34 33 33 33 33 35 36 39 40 40 39 38 39 39 38 37 36 36 35 35 35 35 35 35 35 35 35 35 35 34 34 33 33 32 32 31 31 31 30 29 29 29
35 33 32 32 33 34 33 36 38 39 39 39 40 40 41 40 38 36 36 36 36 37 37 38 38 38 38 38 38 37 37 37 37 37 36 36 35 34 34 34 33 32 31 31
34 33 31 32 35 34 35 38 39 39 38 38 39 40 40 40 39 39 38 37 38 38 39 40 40 41 42 42 41 40 40 41 40 40 39 39 38 37 38 37 36 35 34 33
32 32 33 35 36 37 38 37 38 39 39 39 39 39 39 40 40 40 39 39 40 40 41 42 43 44 44 43 43 43 43 43 43 42 42 41 41 40 39 38 38 37 37 36
33 35 36 36 38 39 38 37 38 39 39 38 39 39 40 41 41 41 41 41 42 42 42 43 44 44 45 45 45 45 45 45 44 44 43 43 42 41 41 40 39 38 38 37
34 36 38 38 39 38 39 38 38 38 39 40 41 41 41 41 41 41 42 43 43 43 43 43 44 45 45 46 46 47 46 45 45 45 44 44 44 43 42 41 40 39 39 38
35 36 37 39 40 39 38 38 38 38 40 41 41 41 42 42 41 41 41 42 43 43 44 44 44 44 45 46 46 46 46 45 44 44 44 44 44 43 43 42 42 41 42 41
35 36 38 39 39 40 39 38 39 39 40 41 41 42 42 41 40 41 42 42 43 44 45 45 44 44 44 45 46 45 45 45 44 43 44 44 45 43 42 42 42 42 42 42
35 35 35 37 38 37 38 38 38 38 38 39 39 40 41 42 42 43 43 44 44 45 45 45 45 45 44 45 45 46 47 46 45 45 45 45 45 45 45 44 44 44 43 42
34 34 35 34 35 36 37 38 38 38 38 38 39 40 41 41 42 42 42 43 43 44 45 45 45 45 45 45 45 46 47 47 47 46 45 45 46 46 46 46 45 44 44 43
31 33 34 34 34 35 35 36 37 36 37 37 38 38 39 40 40 41 41 42 42 42 43 44 44 44 45 44 44 45 46 46 46 45 44 45 45 45 45 44 43 43 43 43
29 31 31 31 31 32 33 33 34 35 35 35 36 36 37 38 38 38 39 40 41 41 42 42 41 41 42 42 43 43 44 44 45 44 44 43 43 43 43 42 42 42 41 41
27 28 28 29 30 30 31 31 32 33 33 34 34 35 36 36 37 38 38 38 39 39 39 39 39 38 39 39 40 39 39 39 40 41 41 41 40 40 40 40 39 39 38 38
26 27 27 28 29 29 29 30 31 32 32 32 32 33 34 34 34 35 35 35 35 35 35 36 36 37 37 37 37 36 36 38 39 39 39 39 39 38 37 36 36 36 35 35
24 24 25 25 26 26 26 28 30 30 30 30 30 31 32 32 32 31 31 32 32 32 31 32 33 34 34 34 34 35 35 36 37 37 37 36 36 36 35 35 35 35 35 35
21 22 23 23 24 25 25 25 25 26 26 27 28 29 28 28 28 28 28 29 30 30 29 30 31 30 30 31 32 33 33 32 32 32 32 32 33 33 34 34 34 33 33 33
19 20 21 21 22 23 22 22 23 23 24 25 25 26 26 26 25 25 26 27 27 27 27 27 27 27 27 28 28 29 29 29 29 30 29 29 29 30 30 31 31 30 31 31
17 18 19 20 21 21 21 21 21 21 22 22 22 22 22 22 23 23 24 25 25 25 26 25 25 24 25 25 25 25 26 27 27 27 27 27 27 27 27 28 28 29 30 30
16 16 17 18 19 18 18 19 19 19 19 19 19 19 19 20 20 21 22 22 23 22 22 22 22 22 23 24 23 22 23 23 23 23 24 25 25 26 26 27 28 28 29 29
15 15 15 16 16 15 15 16 17 17 17 17 18 18 18 19 19 19 20 20 19 19 18 19 19 20 21 21 21 21 21 21 21 22 23 23 23 23 24 25 26 27 28 28
13 13 14 14 13 13 14 14 15 15 15 16 17 17 17 17 17 17 17 17 17 16 17 17 18 18 19 19 18 19 19 20 21 21 20 20 21 22 22 23 24 25 25 25
12 12 12 13 13 13 13 14 14 15 15 15 16 16 16 15 16 15 15 15 15 15 15 15 15 16 17 17 18 18 19 20 20 20 21 21 21 22 22 22 23 24 24 24
11 12 12 12 12 12 12 12 13 13 14 14 15 15 15 15 15 15 15 15 15 14 14 14 14 14 15 16 16 16 17 18 18 19 19 20 21 22 22 22 22 23 24 24

GEFSNGP_500_meanwind_198.txt.gz
Wind_Speed
35 35 37 37 37 38 38 38 38 37 37 34 33 33 31 30 29 29 28 28 27 28 27 26 26 26 25 24 24 24 22 21 21 20 20 20 20 20 20 20 20 20 20 20
36 36 38 38 38 38 38 39 39 38 38 36 35 34 33 32 32 31 30 30 29 31 30 28 28 28 27 27 27 26 24 24 24 23 23 23 24 24 24 23 23 23 22 22
36 37 37 38 38 39 39 39 40 41 41 40 38 37 35 35 34 35 33 32 31 31 31 31 31 30 30 28 28 28 28 27 27 27 27 27 27 27 26 27 26 25 25 25
37 36 39 37 36 39 40 39 39 40 41 40 38 37 37 36 35 36 35 34 33 33 33 33 32 32 32 33 32 32 31 30 29 29 30 30 29 29 29 29 29 28 28 28
38 38 38 37 36 36 38 38 38 38 40 41 41 41 40 39 37 36 35 34 34 34 34 34 34 34 34 34 34 34 34 34 33 32 33 33 33 33 33 33 32 31 31 31
37 37 37 36 36 36 37 38 37 37 38 39 40 41 41 40 39 38 36 36 35 35 36 36 36 37 37 37 37 36 36 36 36 36 36 36 35 36 36 36 36 36 35 34
36 37 38 37 37 37 38 38 37 37 37 37 39 41 41 40 40 38 38 38 37 37 38 38 38 38 38 39 40 40 39 39 40 39 39 40 39 39 39 39 39 38 37 36
36 36 37 36 38 38 37 37 39 39 39 39 39 41 41 41 40 39 39 39 39 38 38 39 38 39 39 41 41 41 41 41 41 42 42 43 43 42 41 41 40 40 39 37
34 34 35 35 36 38 38 38 38 39 40 40 40 40 40 40 39 40 40 39 40 39 39 39 39 40 40 40 41 42 42 42 43 43 43 44 44 44 44 44 43 42 41 38
33 34 34 34 35 35 36 37 38 38 38 39 39 40 41 40 39 39 40 40 40 41 40 40 40 40 40 40 41 42 43 44 44 44 45 45 46 46 46 46 45 43 42 40
33 33 34 35 35 35 36 36 35 36 36 37 38 38 39 39 39 39 39 39 41 41 40 40 40 40 40 40 41 42 42 43 44 45 46 46 47 47 46 45 43 43 42 41
33 34 35 34 35 35 35 35 35 36 37 37 38 38 39 38 38 39 39 38 39 39 40 41 41 42 42 41 42 42 43 44 45 45 46 46 46 46 44 43 42 43 43 42
32 33 34 34 35 36 36 35 36 35 36 38 38 38 39 38 38 38 38 38 39 40 40 41 41 41 42 42 43 43 44 44 44 44 44 44 43 43 43 43 43 43 42 41
31 32 34 34 35 35 36 36 37 36 36 37 38 37 36 36 36 37 38 38 39 40 40 40 41 42 42 43 43 44 44 44 44 43 43 43 43 43 43 42 42 42 42 42
31 30 31 31 31 32 32 33 34 34 34 35 36 36 36 35 35 36 37 38 39 39 40 40 40 41 42 42 42 43 43 43 43 43 43 43 43 43 42 41 41 42 42 42
27 28 29 29 30 30 31 32 32 32 33 34 35 36 36 36 36 36 37 37 38 39 39 39 40 40 40 41 41 42 41 41 42 42 42 42 42 42 42 41 41 41 41 40
24 25 25 26 27 28 29 30 31 31 32 32 33 33 34 34 34 34 35 36 37 37 37 38 38 39 39 39 39 40 40 40 39 39 39 40 39 40 39 39 39 39 39 39
23 23 23 23 24 25 25 26 28 29 30 31 32 32 32 32 32 32 33 34 34 35 36 36 37 37 37 37 37 37 37 37 36 37 37 37 37 37 37 37 37 36 36 36
19 20 21 22 22 22 24 26 27 28 28 30 31 31 30 30 31 31 31 31 32 32 33 34 34 34 33 33 33 33 34 34 34 34 34 33 34 35 35 35 35 34 34 35
18 19 20 20 21 22 23 24 25 27 27 28 28 28 27 28 28 29 29 29 29 29 29 30 30 30 30 30 30 30 30 29 29 29 30 30 31 32 32 32 32 31 32 32
16 17 19 20 21 21 21 22 23 25 26 27 26 25 26 26 26 25 25 26 26 26 26 26 26 27 27 27 27 27 27 26 26 26 27 28 28 29 30 30 30 29 29 29
15 16 17 18 19 19 19 20 20 21 22 22 22 22 23 23 23 23 23 24 24 24 23 23 23 23 23 24 24 25 24 24 24 25 26 27 27 27 27 27 27 27 27 28
14 15 15 15 16 16 16 17 17 17 17 16 17 18 19 20 20 21 21 22 22 21 21 21 21 20 21 21 22 22 22 22 23 23 23 24 25 24 24 25 26 26 26 27
13 13 13 13 14 14 14 14 15 16 15 15 15 16 17 17 18 18 19 19 19 19 19 19 18 18 17 18 18 18 19 19 20 20 21 21 22 23 23 23 23 24 25 25
12 11 11 11 11 12 13 13 14 14 14 14 15 15 15 15 15 15 15 15 15 16 16 16 16 16 16 16 16 16 16 17 18 19 19 19 19 19 20 20 21 23 23 24
10 11 11 11 11 11 12 12 13 13 13 13 14 14 14 13 13 13 13 14 14 15 15 15 15 15 15 16 16 16 16 17 17 18 19 18 18 18 18 19 21 21 21 21
10 10 11 11 11 11 12 12 12 12 12 12 13 12 12 12 12 12 13 13 14 14 14 15 15 15 15 15 16 16 16 17 17 17 16 17 17 18 17 18 19 19 19 20

GEFSNGP_500_meanwind_204.txt.gz
Wind_Speed
34 34 34 34 34 36 37 39 39 39 37 34 33 32 31 30 30 29 28 29 28 28 27 25 25 26 27 27 26 26 25 25 25 24 24 23 23 22 23 22 22 22 22 22
35 35 35 34 34 35 36 37 39 40 38 35 35 35 34 33 32 32 31 31 32 31 28 28 28 28 29 29 29 29 28 27 27 27 27 26 25 24 24 24 25 25 25 25
35 35 37 37 36 36 36 37 38 39 39 38 38 37 35 35 35 33 33 32 32 31 31 31 31 30 30 30 30 30 29 29 28 28 29 29 28 28 27 27 27 28 28 29
35 35 36 35 36 37 37 38 38 37 37 37 38 38 36 36 35 34 34 33 33 33 33 33 33 33 31 32 31 31 31 30 30 31 30 30 30 30 30 30 30 31 31 31
35 36 36 35 35 36 37 37 37 37 37 38 37 37 36 35 35 35 35 35 34 35 36 35 35 35 35 33 32 32 33 32 32 32 32 32 32 32 33 33 33 34 33 33
34 35 36 35 35 36 37 37 36 37 37 37 36 37 35 35 36 36 35 35 36 35 36 36 36 36 35 35 35 34 33 33 34 35 35 35 35 35 36 36 35 36 35 36
34 34 35 35 34 34 35 36 36 36 37 37 36 35 35 35 36 37 37 37 37 37 36 36 36 36 36 36 35 34 34 35 35 36 37 37 37 38 39 39 38 38 38 38
33 33 33 33 33 33 35 35 35 35 35 35 35 35 35 35 35 36 38 38 38 38 37 37 38 38 38 37 37 36 36 36 36 37 38 38 38 39 40 40 40 40 40 40
32 32 32 32 33 32 33 34 34 34 34 34 33 33 33 34 34 35 36 36 36 37 37 37 37 38 37 38 39 38 38 38 38 38 38 39 40 40 40 40 40 40 40 40
32 31 31 31 32 32 32 33 33 33 33 32 32 32 33 32 33 34 35 35 35 36 37 37 38 38 39 39 40 40 40 40 40 40 40 40 40 40 40 40 40 40 40 41
30 30 31 31 30 31 31 31 32 33 33 32 32 32 32 33 33 34 34 34 35 36 37 38 39 40 40 41 42 42 41 41 41 41 40 40 41 41 41 40 40 40 41 41
29 29 30 30 29 30 31 31 32 33 33 33 33 33 32 33 33 34 34 35 35 36 38 39 40 40 41 42 42 42 41 40 41 41 41 42 42 42 42 42 41 42 42 41
28 29 30 30 30 30 31 31 32 32 32 32 32 32 32 33 34 35 35 35 36 37 38 38 39 40 41 40 41 41 40 40 40 41 42 43 43 43 43 43 43 43 42 42
28 28 28 29 30 31 31 30 30 31 30 30 31 31 31 32 34 35 36 36 36 37 38 38 38 39 39 39 40 41 41 41 41 42 44 44 44 44 44 43 41 41 41 41
26 27 28 28 28 29 30 30 29 29 29 30 31 31 31 31 32 33 34 35 35 36 36 36 36 36 36 37 39 39 40 41 42 42 43 43 43 43 43 42 41 41 40 40
25 26 26 27 28 28 28 28 28 28 29 29 29 30 31 31 31 32 33 34 34 35 35 35 36 36 37 38 39 39 40 40 41 41 40 41 40 40 40 40 39 39 39 38
26 26 26 26 25 26 27 28 28 27 28 28 28 28 29 29 30 31 32 33 33 33 34 35 36 37 38 38 38 38 37 37 38 38 38 38 38 37 37 37 37 37 37 37
24 24 24 24 25 25 24 25 26 26 27 27 26 27 28 29 29 30 31 31 32 33 33 34 35 36 37 37 36 35 34 34 35 36 36 35 35 34 34 35 34 35 35 35
22 23 23 23 22 22 23 23 23 23 24 25 25 26 27 28 29 29 29 30 30 31 31 32 34 35 35 34 34 33 33 33 34 34 34 34 33 32 32 33 33 33 33 33
19 19 19 19 19 19 19 20 21 22 23 24 24 25 26 26 27 27 27 28 29 29 29 30 30 30 30 30 30 31 32 32 32 32 32 32 31 31 31 31 31 31 31 31
16 16 16 16 16 17 18 19 20 20 21 22 23 24 25 25 26 26 26 26 26 27 28 28 27 27 27 27 27 27 28 29 29 29 28 28 27 27 27 27 27 28 28 29
14 14 13 13 14 15 16 17 18 18 19 19 20 21 22 23 23 23 23 24 24 25 25 25 25 24 24 24 24 24 24 25 25 25 25 26 26 26 27 27 26 27 27 28
13 13 13 14 14 15 15 16 17 17 18 19 19 20 21 21 21 21 22 22 23 23 22 22 22 22 22 22 22 22 23 23 23 24 25 25 26 26 25 26 26 27 27 27
13 13 13 13 13 14 14 15 16 16 18 18 19 19 19 19 19 20 21 21 21 21 20 20 20 21 21 22 21 21 21 21 22 23 24 24 24 24 25 25 26 26 26 26
12 12 12 12 12 13 13 14 14 15 16 17 17 17 18 18 18 18 19 19 19 19 19 19 18 19 19 19 20 20 20 20 20 21 22 22 22 23 23 24 24 25 25 25
10 10 11 11 11 12 12 13 14 14 15 16 16 16 16 17 17 17 17 17 18 18 17 17 17 17 17 18 18 19 19 20 20 21 21 21 20 21 21 22 22 23 23 24
9 9 10 10 11 11 12 12 12 12 13 13 14 15 15 16 16 16 16 17 17 17 17 17 17 17 18 18 18 19 19 19 20 19 19 19 19 20 20 21 21 22 22 23

GEFSNGP_500_meanwind_210.txt.gz
Wind_Speed
30 30 29 30 30 31 32 33 34 33 32 32 32 32 31 29 29 29 30 30 30 30 30 29 29 29 29 30 30 29 28 27 26 26 26 25 25 24 24 24 23 23 23 23
32 31 31 31 31 31 32 33 34 33 33 33 32 31 31 30 30 30 31 32 31 31 31 31 31 31 31 32 33 32 30 29 29 29 29 28 27 26 26 27 26 26 25 25
32 32 33 32 30 31 31 32 32 33 33 32 32 30 30 30 30 30 30 31 32 33 32 32 32 33 34 34 34 33 33 32 32 32 31 29 29 28 28 28 29 29 27 27
32 32 33 31 30 30 32 33 33 34 34 33 33 32 31 31 31 32 32 31 32 33 33 33 34 34 35 34 34 33 34 34 33 32 30 31 31 29 29 29 29 29 29 29
32 31 32 32 32 32 31 33 33 33 33 34 34 33 33 32 32 33 33 33 33 32 33 34 36 36 35 36 35 35 35 34 34 34 33 32 31 31 31 31 31 31 30 30
32 31 30 30 32 31 31 33 33 33 33 33 33 33 34 33 33 34 34 34 34 34 34 35 35 35 35 36 37 37 36 35 35 35 34 33 32 32 33 33 32 32 31 31
31 31 30 31 30 29 30 31 32 32 32 32 33 33 34 34 34 34 34 34 34 34 35 35 36 36 36 37 37 37 37 37 36 36 35 34 34 34 34 34 33 33 33 33
30 30 30 30 29 30 31 30 30 30 30 31 31 32 33 33 32 33 34 34 34 35 35 36 35 36 37 37 37 38 39 38 38 37 36 36 36 35 35 35 34 34 35 35
30 30 30 30 29 29 30 30 30 30 30 30 30 30 31 31 31 31 31 31 33 34 35 36 35 35 36 37 37 38 38 37 38 38 37 37 36 36 36 36 36 36 36 36
30 30 29 29 29 29 29 29 29 29 30 30 30 30 30 30 30 30 30 31 31 31 32 33 34 35 36 36 37 37 38 38 38 39 38 38 37 37 37 37 37 38 37 37
30 30 30 30 30 30 29 28 28 28 29 29 29 30 30 30 30 31 31 30 30 30 31 32 32 33 34 36 38 39 39 39 39 38 38 38 38 38 38 38 39 39 39 39
29 29 30 29 29 29 29 28 27 27 28 28 29 29 29 30 30 30 30 30 30 31 32 33 33 34 35 36 36 37 38 37 37 37 38 39 40 40 40 40 40 40 40 40
29 29 28 28 28 28 28 28 28 27 27 27 28 29 29 29 30 30 30 31 31 31 32 33 33 34 35 35 36 37 37 37 37 38 37 38 39 40 41 41 40 40 40 40
28 27 27 27 27 27 27 28 28 28 28 28 28 29 29 29 30 30 30 30 31 32 32 32 33 34 35 36 36 36 36 37 38 38 39 39 39 40 40 40 40 40 39 39
26 26 26 26 27 27 28 28 29 28 27 28 28 28 29 29 29 29 30 30 30 31 32 32 33 33 34 35 35 35 36 37 37 38 39 39 39 39 40 40 40 40 39 40
24 24 25 26 26 27 27 27 28 28 27 27 27 27 28 28 29 29 30 30 29 29 29 29 30 31 32 34 35 35 35 36 37 38 39 39 39 38 38 38 38 38 39 39
23 23 24 24 25 26 27 26 27 27 27 26 26 26 26 27 27 27 27 27 27 27 27 27 28 29 30 31 33 33 34 34 35 36 37 38 37 36 36 37 37 36 37 37
22 23 23 24 24 24 25 26 26 26 26 26 26 26 25 25 25 25 26 26 26 27 27 27 27 28 29 30 31 32 32 32 33 34 34 35 35 34 34 34 33 34 34 34
21 21 22 22 23 23 23 24 24 25 25 24 24 25 25 24 23 24 24 25 25 25 25 26 27 28 29 29 31 31 31 31 31 32 32 32 32 33 32 32 32 32 32 32
18 18 18 19 20 20 21 21 21 22 22 23 22 22 22 22 21 22 22 23 22 22 22 24 25 26 27 28 28 29 29 29 29 29 29 29 29 30 30 30 31 31 31 31
14 15 16 16 17 17 18 18 19 20 20 21 21 21 20 20 20 20 20 20 20 21 22 23 23 24 25 26 26 27 27 27 26 26 27 27 28 29 29 30 30 30 30 30
13 13 14 15 15 15 16 16 17 17 18 18 19 19 19 19 20 20 20 21 21 21 21 22 22 23 24 24 25 25 25 24 23 24 26 27 27 28 28 28 28 28 29 29
13 13 13 13 13 13 13 14 14 15 15 16 17 17 18 18 19 19 20 19 19 20 20 21 21 22 22 23 23 23 23 22 22 23 24 25 26 26 26 27 27 28 28 28
12 12 12 12 12 11 11 12 12 13 14 15 16 16 17 17 18 18 18 18 18 19 19 20 20 20 20 21 21 21 21 21 21 22 23 23 23 24 25 25 25 26 25 25
10 10 11 11 11 10 11 12 12 13 13 14 14 15 15 15 16 16 16 16 17 18 18 19 19 19 19 20 20 20 20 21 21 22 22 22 22 23 23 23 24 23 23 22
8 8 9 10 11 11 12 12 13 13 12 13 13 13 13 13 14 15 15 16 16 17 17 18 18 19 19 19 20 20 21 21 22 22 22 22 23 23 22 22 22 21 21 22
7 7 8 9 10 10 10 10 10 10 11 11 12 12 13 13 13 14 15 15 15 16 17 17 17 18 18 19 19 19 20 20 20 21 21 22 22 22 22 22 22 22 22 23

GEFSNGP_500_meanwind_216.txt.gz
Wind_Speed
27 25 24 23 23 24 25 28 30 29 29 30 32 34 33 31 31 31 30 31 32 32 32 32 32 31 31 31 31 31 30 30 30 30 30 29 28 27 26 25 25 25 25 24
31 29 28 28 27 26 27 28 29 30 31 32 34 34 35 32 32 32 31 31 32 33 34 33 33 32 32 33 33 33 33 32 33 33 32 31 31 30 29 28 28 27 26 25
32 31 31 31 28 29 30 30 31 31 32 32 33 34 35 33 33 32 31 32 32 33 34 34 33 33 34 33 34 35 35 35 34 34 34 33 33 33 33 31 30 30 29 28
33 33 35 32 29 30 32 32 32 33 34 35 34 34 33 32 32 33 33 32 32 33 34 34 34 34 35 35 36 36 36 35 35 35 35 35 35 34 34 33 32 32 31 30
33 33 34 31 30 31 33 33 34 35 35 35 35 35 34 33 34 34 34 33 32 33 35 35 36 36 36 37 37 37 37 36 36 37 37 36 35 34 35 34 33 34 33 33
34 34 33 31 31 32 34 33 34 34 35 34 34 35 35 35 34 34 34 35 34 35 36 37 37 37 37 37 38 38 37 38 38 38 39 38 36 35 35 34 35 35 35 35
34 34 33 32 33 33 34 35 34 34 34 33 34 35 36 36 35 35 35 35 36 37 37 37 38 38 38 38 39 39 39 40 39 38 38 37 37 36 35 35 35 36 35 35
32 33 33 33 33 34 35 34 33 34 33 33 34 34 35 35 35 35 36 36 36 35 36 37 37 38 39 39 39 39 38 38 38 38 36 37 37 37 37 37 37 36 36 36
32 33 34 32 32 33 33 34 34 34 35 33 33 34 34 34 34 34 34 35 36 35 35 35 35 36 36 37 38 38 37 37 37 37 37 38 38 39 38 38 38 38 37 36
34 34 33 32 32 33 33 33 34 34 34 33 35 35 34 32 31 32 34 35 36 36 36 35 36 36 36 37 38 37 37 36 35 35 36 37 37 37 37 37 37 37 37 37
34 33 33 33 32 32 33 33 33 34 34 33 34 35 34 34 33 34 34 34 35 36 36 35 35 36 36 35 35 36 35 34 34 35 35 36 37 36 35 36 37 37 36 36
33 33 33 32 32 31 33 34 35 34 33 33 33 34 34 34 34 34 34 35 35 35 35 36 36 36 36 35 35 34 33 33 34 35 35 35 36 36 35 35 35 36 36 37
32 33 33 33 32 32 33 34 35 34 32 32 32 33 34 34 34 34 35 35 35 35 34 34 34 33 34 34 34 33 33 34 35 35 35 36 36 35 35 36 36 36 37 38
32 32 32 32 33 33 33 33 33 32 32 32 32 33 33 34 34 33 33 33 33 33 33 33 33 33 32 32 33 33 34 34 35 35 35 35 34 34 35 36 37 38 38 39
31 31 31 31 33 33 32 32 32 33 33 31 30 31 31 31 32 32 32 32 32 32 31 31 32 32 32 32 32 33 33 33 34 35 35 35 35 35 35 36 37 37 37 38
28 29 30 31 32 31 29 29 30 30 30 30 30 30 30 30 31 32 32 31 31 31 31 31 31 31 31 31 31 32 32 33 34 34 34 33 33 33 33 35 36 36 36 37
27 27 28 30 30 29 28 28 27 28 28 29 29 29 30 30 30 30 30 30 30 30 30 30 30 30 31 31 32 31 31 32 32 32 32 31 32 32 33 34 35 35 35 35
25 26 27 27 28 27 26 26 27 27 27 27 28 29 29 29 29 29 30 28 29 29 29 29 29 29 29 29 29 30 31 31 30 30 30 31 31 31 31 32 33 33 35 35
23 23 23 24 25 26 26 25 24 24 25 27 27 28 28 29 29 28 28 28 27 27 27 27 27 26 27 28 30 30 29 29 29 30 29 29 30 30 30 31 32 33 34 35
19 20 21 21 23 24 23 22 22 23 25 25 26 26 27 28 27 27 26 26 26 25 25 25 25 26 26 27 27 27 27 28 27 27 28 28 29 29 30 31 32 33 33 34
17 17 18 19 20 22 22 22 23 23 23 23 24 24 24 24 23 24 24 24 23 24 24 24 24 24 24 25 24 24 24 25 26 27 27 27 28 29 29 29 31 32 32 32
16 16 16 17 18 18 19 19 20 20 21 21 21 21 21 21 21 21 21 21 21 22 23 23 23 23 23 23 23 23 24 25 25 25 26 26 27 28 29 29 30 30 30 30
14 14 15 16 16 16 16 16 17 18 19 19 19 19 19 18 19 19 19 19 19 20 21 21 21 21 21 21 22 23 24 24 25 25 25 26 27 28 28 28 29 28 28 29
12 13 13 13 14 14 15 16 16 16 16 17 16 16 16 16 17 17 17 18 18 19 19 19 20 20 21 21 22 22 23 23 24 24 25 26 26 26 27 27 26 26 26 27
11 11 11 12 12 12 13 13 13 14 14 14 14 14 14 15 15 15 16 17 17 18 18 19 19 20 21 21 22 22 23 23 23 24 24 25 26 26 26 26 26 26 26 26
10 11 11 11 11 11 12 12 12 12 12 12 12 13 14 15 15 16 16 16 16 17 17 18 19 20 20 21 21 22 22 23 23 23 24 25 25 25 25 25 25 26 26 26
10 10 10 11 11 11 11 11 11 12 12 12 12 13 14 14 14 15 15 16 16 17 17 17 18 19 20 20 21 21 22 22 22 23 24 24 25 25 25 25 25 25 25 25